| time (UTC) | temp F | wind direction | speed MPH | gust MPH | rain 1hr in | rain 24hr in | rain mn in | humidity % | barometer mb |
| 20260902161859 | 71 | 74 | 0.0 | 1.0 | 0.16 | 0.54 | 0.17 | 96 | 1018.7 |
| 20260902161800 | 71 | 74 | 0.0 | 2.0 | 0.15 | 0.53 | 0.16 | 96 | 1018.7 |
| 20260902161600 | 72 | 74 | 0.0 | 2.0 | 0.14 | 0.52 | 0.15 | 96 | 1018.8 |
| 20260902161500 | 72 | 74 | 0.0 | 2.0 | 0.14 | 0.52 | 0.15 | 96 | 1018.9 |
| 20260902161400 | 72 | 74 | 0.0 | 2.0 | 0.14 | 0.52 | 0.15 | 96 | 1018.9 |
| 20260902161259 | 72 | 74 | 1.0 | 2.0 | 0.14 | 0.52 | 0.15 | 96 | 1018.8 |
| 20260902161201 | 72 | 74 | 0.0 | 2.0 | 0.14 | 0.52 | 0.15 | 96 | 1018.8 |
| 20260902161059 | 72 | 74 | 0.0 | 2.0 | 0.13 | 0.51 | 0.14 | 96 | 1018.7 |
| 20260902161000 | 72 | 74 | 0.0 | 2.0 | 0.13 | 0.51 | 0.14 | 96 | 1018.7 |
| 20260902160900 | 72 | 74 | 1.0 | 2.0 | 0.12 | 0.50 | 0.13 | 96 | 1018.8 |
| 20260902160800 | 72 | 74 | 1.0 | 2.0 | 0.12 | 0.50 | 0.13 | 96 | 1018.9 |
| 20260902160700 | 72 | 74 | 1.0 | 2.0 | 0.12 | 0.50 | 0.13 | 96 | 1019.0 |
| 20260902160559 | 72 | 74 | 0.0 | 3.0 | 0.12 | 0.50 | 0.13 | 96 | 1019.1 |
| 20260902160504 | 72 | 74 | 0.0 | 3.0 | 0.11 | 0.49 | 0.12 | 96 | 1019.2 |
| 20260902160400 | 72 | 74 | 0.0 | 3.0 | 0.11 | 0.49 | 0.12 | 96 | 1019.2 |
| 20260902160259 | 72 | 74 | 0.0 | 4.0 | 0.10 | 0.48 | 0.11 | 96 | 1019.2 |
| 20260902160159 | 72 | 74 | 0.0 | 4.0 | 0.10 | 0.48 | 0.11 | 96 | 1019.2 |
| 20260902160002 | 72 | 74 | 2.0 | 8.0 | 0.10 | 0.48 | 0.11 | 96 | 1019.3 |
| 20260902155859 | 72 | 74 | 0.0 | 12.0 | 0.09 | 0.47 | 0.10 | 96 | 1019.4 |
| 20260902155801 | 72 | 74 | 1.0 | 12.0 | 0.09 | 0.47 | 0.10 | 96 | 1019.4 |
| 20260902155359 | 72 | 78 | 4.0 | 12.0 | 0.08 | 0.46 | 0.09 | 97 | 1019.3 |
| 20260902155300 | 72 | 67 | 3.0 | 12.0 | 0.07 | 0.45 | 0.08 | 97 | 1019.2 |
| 20260902155159 | 72 | 38 | 6.0 | 12.0 | 0.07 | 0.45 | 0.08 | 97 | 1019.2 |
| 20260902155059 | 72 | 49 | 3.0 | 12.0 | 0.06 | 0.44 | 0.07 | 97 | 1019.2 |
| 20260902155003 | 72 | 69 | 4.0 | 12.0 | 0.06 | 0.44 | 0.07 | 97 | 1019.3 |
| 20260902154900 | 72 | 355 | 2.0 | 4.0 | 0.06 | 0.44 | 0.07 | 97 | 1019.0 |
| 20260902154659 | 72 | 78 | 3.0 | 4.0 | 0.05 | 0.43 | 0.06 | 97 | 1019.0 |
| 20260902154359 | 72 | 59 | 1.0 | 4.0 | 0.04 | 0.42 | 0.05 | 97 | 1019.3 |
| 20260902154300 | 72 | 58 | 2.0 | 4.0 | 0.04 | 0.42 | 0.05 | 97 | 1019.4 |
| 20260902154101 | 73 | 323 | 2.0 | 4.0 | 0.02 | 0.40 | 0.03 | 97 | 1019.7 |
| 20260902154003 | 73 | 316 | 2.0 | 4.0 | 0.02 | 0.40 | 0.03 | 97 | 1019.6 |
| 20260902153759 | 73 | 316 | 1.0 | 4.0 | 0.01 | 0.39 | 0.02 | 97 | 1019.6 |
| 20260902153659 | 73 | 316 | 2.0 | 4.0 | 0.01 | 0.39 | 0.02 | 97 | 1019.6 |
| 20260902153600 | 73 | 317 | 3.0 | 4.0 | 0.00 | 0.38 | 0.01 | 97 | 1019.6 |
| 20260902153503 | 73 | 119 | 1.0 | 3.0 | 0.00 | 0.38 | 0.01 | 97 | 1019.5 |
| 20260902153400 | 73 | 119 | 3.0 | 3.0 | 0.00 | 0.38 | 0.01 | 97 | 1019.3 |
| 20260902153300 | 73 | 119 | 2.0 | 3.0 | 0.00 | 0.38 | 0.01 | 97 | 1019.0 |
| 20260902153200 | 73 | 119 | 1.0 | 2.0 | 0.00 | 0.38 | 0.01 | 97 | 1018.8 |
| 20260902153101 | 73 | 119 | 0.0 | 0.0 | 0.00 | 0.38 | 0.01 | 97 | 1018.5 |
| 20260902153003 | 73 | 119 | 0.0 | 1.0 | 0.00 | 0.38 | 0.01 | 97 | 1018.3 |
| 20260902152900 | 73 | 119 | 0.0 | 1.0 | 0.00 | 0.38 | 0.01 | 97 | 1018.1 |
| 20260902152759 | 73 | 119 | 0.0 | 1.0 | 0.00 | 0.38 | 0.01 | 97 | 1018.0 |
| 20260902152600 | 73 | 119 | 0.0 | 1.0 | 0.00 | 0.38 | 0.01 | 97 | 1017.8 |
| 20260902152359 | 73 | 119 | 0.0 | 2.0 | 0.00 | 0.38 | 0.01 | 97 | 1017.8 |
| 20260902152002 | 73 | 119 | 0.0 | 3.0 | 0.00 | 0.38 | 0.01 | 97 | 1017.8 |
| 20260902151900 | 73 | 119 | 0.0 | 3.0 | 0.00 | 0.38 | 0.01 | 97 | 1017.8 |
| 20260902151800 | 73 | 119 | 0.0 | 3.0 | 0.00 | 0.38 | 0.01 | 97 | 1017.8 |
| 20260902151700 | 73 | 119 | 1.0 | 3.0 | 0.00 | 0.38 | 0.01 | 97 | 1017.8 |
| 20260902151600 | 73 | 119 | 0.0 | 3.0 | 0.00 | 0.38 | 0.01 | 97 | 1017.8 |
| 20260902151259 | 73 | 120 | 1.0 | 3.0 | 0.00 | 0.38 | 0.01 | 97 | 1017.7 |
| 20260902151200 | 73 | 119 | 3.0 | 3.0 | 0.00 | 0.38 | 0.01 | 97 | 1017.6 |
| 20260902151100 | 73 | 105 | 0.0 | 3.0 | 0.00 | 0.38 | 0.01 | 97 | 1017.6 |
| 20260902151001 | 73 | 105 | 1.0 | 3.0 | 0.00 | 0.38 | 0.01 | 97 | 1017.7 |
| 20260902150800 | 73 | 102 | 2.0 | 3.0 | 0.00 | 0.38 | 0.01 | 97 | 1017.7 |
| 20260902150701 | 73 | 102 | 1.0 | 4.0 | 0.00 | 0.38 | 0.01 | 97 | 1017.7 |
| 20260902150502 | 73 | 102 | 1.0 | 4.0 | 0.00 | 0.38 | 0.01 | 97 | 1017.6 |
| 20260902150400 | 73 | 102 | 1.0 | 4.0 | 0.00 | 0.38 | 0.01 | 97 | 1017.5 |
| 20260902150300 | 73 | 103 | 2.0 | 4.0 | 0.00 | 0.38 | 0.01 | 97 | 1017.5 |
| 20260902150200 | 73 | 103 | 1.0 | 4.0 | 0.00 | 0.38 | 0.01 | 97 | 1017.5 |
| 20260902150059 | 73 | 103 | 0.0 | 4.0 | 0.00 | 0.38 | 0.01 | 97 | 1017.5 |
| 20260902150002 | 73 | 103 | 0.0 | 4.0 | 0.00 | 0.38 | 0.01 | 97 | 1017.4 |
| 20260902145900 | 73 | 101 | 0.0 | 4.0 | 0.00 | 0.38 | 0.01 | 97 | 1017.4 |
| 20260902145800 | 73 | 101 | 2.0 | 4.0 | 0.00 | 0.38 | 0.01 | 97 | 1017.4 |
| 20260902145659 | 73 | 148 | 1.0 | 3.0 | 0.00 | 0.38 | 0.01 | 97 | 1017.4 |
| 20260902145502 | 73 | 132 | 3.0 | 3.0 | 0.00 | 0.38 | 0.01 | 97 | 1017.4 |
| 20260902145400 | 73 | 115 | 0.0 | 3.0 | 0.00 | 0.38 | 0.01 | 97 | 1017.4 |
| 20260902145300 | 73 | 108 | 0.0 | 3.0 | 0.00 | 0.38 | 0.01 | 97 | 1017.4 |
| 20260902145159 | 73 | 109 | 3.0 | 3.0 | 0.00 | 0.38 | 0.01 | 97 | 1017.4 |
| 20260902145100 | 73 | 164 | 1.0 | 3.0 | 0.00 | 0.38 | 0.01 | 97 | 1017.5 |
| 20260902145002 | 73 | 117 | 0.0 | 3.0 | 0.00 | 0.38 | 0.01 | 97 | 1017.5 |
| 20260902144900 | 73 | 159 | 2.0 | 3.0 | 0.00 | 0.38 | 0.01 | 97 | 1017.4 |
| 20260902144800 | 73 | 161 | 1.0 | 3.0 | 0.00 | 0.38 | 0.01 | 97 | 1017.4 |
| 20260902144700 | 73 | 80 | 0.0 | 3.0 | 0.00 | 0.38 | 0.01 | 98 | 1017.3 |
| 20260902144559 | 73 | 80 | 0.0 | 3.0 | 0.00 | 0.38 | 0.01 | 98 | 1017.3 |
| 20260902144503 | 73 | 80 | 1.0 | 3.0 | 0.00 | 0.38 | 0.01 | 98 | 1017.3 |
| 20260902144359 | 73 | 80 | 0.0 | 4.0 | 0.00 | 0.38 | 0.01 | 98 | 1017.3 |
| 20260902144259 | 73 | 80 | 2.0 | 4.0 | 0.00 | 0.38 | 0.01 | 98 | 1017.4 |
| 20260902144059 | 73 | 68 | 1.0 | 4.0 | 0.00 | 0.38 | 0.01 | 98 | 1017.4 |
| 20260902144003 | 73 | 77 | 1.0 | 4.0 | 0.00 | 0.38 | 0.01 | 98 | 1017.5 |
| 20260902143659 | 73 | 162 | 0.0 | 4.0 | 0.00 | 0.38 | 0.01 | 98 | 1017.6 |
| 20260902143500 | 73 | 173 | 5.0 | 5.0 | 0.00 | 0.38 | 0.01 | 98 | 1017.6 |
| 20260902143359 | 73 | 157 | 3.0 | 6.0 | 0.00 | 0.38 | 0.01 | 98 | 1017.6 |
| 20260902143259 | 73 | 128 | 1.0 | 6.0 | 0.00 | 0.38 | 0.01 | 98 | 1017.6 |
| 20260902143200 | 72 | 88 | 1.0 | 6.0 | 0.00 | 0.38 | 0.01 | 98 | 1017.6 |
| 20260902143100 | 72 | 88 | 1.0 | 6.0 | 0.00 | 0.38 | 0.01 | 98 | 1017.6 |
| 20260902143000 | 72 | 81 | 3.0 | 6.0 | 0.00 | 0.38 | 0.01 | 98 | 1017.7 |
| 20260902142859 | 72 | 63 | 2.0 | 6.0 | 0.00 | 0.38 | 0.01 | 98 | 1017.7 |
| 20260902142700 | 72 | 139 | 0.0 | 6.0 | 0.00 | 0.38 | 0.01 | 99 | 1017.7 |
| 20260902142600 | 72 | 103 | 1.0 | 6.0 | 0.00 | 0.38 | 0.01 | 99 | 1017.7 |
| 20260902142504 | 72 | 58 | 5.0 | 6.0 | 0.00 | 0.38 | 0.01 | 99 | 1017.7 |
| 20260902142401 | 72 | 78 | 0.0 | 3.0 | 0.00 | 0.38 | 0.01 | 99 | 1017.8 |
| 20260902142300 | 72 | 78 | 0.0 | 3.0 | 0.00 | 0.38 | 0.01 | 99 | 1017.8 |
| 20260902142003 | 72 | 78 | 1.0 | 6.0 | 0.00 | 0.38 | 0.01 | 99 | 1017.7 |
| 20260902141900 | 72 | 79 | 0.0 | 6.0 | 0.00 | 0.38 | 0.01 | 99 | 1017.8 |
| 20260902141800 | 72 | 79 | 0.0 | 6.0 | 0.00 | 0.38 | 0.01 | 99 | 1017.8 |
| 20260902141700 | 72 | 71 | 1.0 | 6.0 | 0.00 | 0.38 | 0.01 | 99 | 1017.8 |
| 20260902141600 | 72 | 94 | 2.0 | 6.0 | 0.00 | 0.38 | 0.01 | 99 | 1017.8 |
| 20260902141400 | 71 | 98 | 1.0 | 6.0 | 0.00 | 0.38 | 0.01 | 99 | 1017.8 |
| 20260902141301 | 71 | 95 | 1.0 | 6.0 | 0.00 | 0.38 | 0.01 | 99 | 1017.8 |
| 20260902141101 | 71 | 47 | 1.0 | 6.0 | 0.00 | 0.38 | 0.01 | 99 | 1017.7 |
| 20260902140859 | 71 | 145 | 2.0 | 5.0 | 0.00 | 0.38 | 0.01 | 99 | 1017.8 |
| 20260902140659 | 71 | 92 | 3.0 | 6.0 | 0.00 | 0.38 | 0.01 | 99 | 1017.8 |
| 20260902140559 | 71 | 132 | 1.0 | 3.0 | 0.00 | 0.38 | 0.01 | 99 | 1017.9 |
| 20260902140300 | 71 | 88 | 1.0 | 3.0 | 0.00 | 0.38 | 0.01 | 99 | 1017.7 |
| 20260902140159 | 71 | 88 | 1.0 | 3.0 | 0.00 | 0.38 | 0.01 | 99 | 1017.8 |
| 20260902140059 | 71 | 113 | 2.0 | 3.0 | 0.00 | 0.38 | 0.01 | 99 | 1017.8 |
| 20260902140001 | 71 | 113 | 0.0 | 4.0 | 0.00 | 0.38 | 0.01 | 99 | 1017.8 |
| 20260902135858 | 71 | 113 | 0.0 | 5.0 | 0.00 | 0.38 | 0.01 | 99 | 1017.9 |
| 20260902135658 | 71 | 114 | 2.0 | 5.0 | 0.00 | 0.38 | 0.01 | 99 | 1017.7 |
| 20260902135559 | 71 | 136 | 1.0 | 5.0 | 0.00 | 0.38 | 0.01 | 99 | 1017.7 |
| 20260902135500 | 71 | 178 | 1.0 | 5.0 | 0.00 | 0.38 | 0.01 | 99 | 1017.7 |
| 20260902135359 | 71 | 183 | 0.0 | 5.0 | 0.00 | 0.38 | 0.01 | 99 | 1017.6 |
| 20260902135258 | 71 | 62 | 1.0 | 5.0 | 0.00 | 0.38 | 0.01 | 99 | 1017.7 |
| 20260902135158 | 71 | 62 | 0.0 | 5.0 | 0.00 | 0.38 | 0.01 | 99 | 1017.7 |
| 20260902135058 | 71 | 200 | 4.0 | 5.0 | 0.00 | 0.38 | 0.01 | 99 | 1017.8 |
| 20260902134859 | 71 | 315 | 3.0 | 5.0 | 0.00 | 0.38 | 0.01 | 99 | 1017.8 |
| 20260902134800 | 71 | 89 | 1.0 | 4.0 | 0.00 | 0.38 | 0.01 | 99 | 1017.9 |
| 20260902134659 | 71 | 72 | 2.0 | 4.0 | 0.00 | 0.38 | 0.01 | 99 | 1017.8 |
| 20260902134559 | 71 | 77 | 2.0 | 4.0 | 0.00 | 0.38 | 0.01 | 99 | 1017.7 |
| 20260902134359 | 71 | 70 | 2.0 | 4.0 | 0.00 | 0.38 | 0.01 | 99 | 1017.7 |
| 20260902134258 | 71 | 70 | 0.0 | 6.0 | 0.00 | 0.38 | 0.01 | 99 | 1017.6 |
| 20260902134158 | 71 | 70 | 3.0 | 6.0 | 0.00 | 0.38 | 0.01 | 99 | 1017.6 |
| 20260902134101 | 71 | 157 | 0.0 | 6.0 | 0.00 | 0.38 | 0.01 | 99 | 1017.5 |
| 20260902134000 | 71 | 157 | 0.0 | 8.0 | 0.00 | 0.38 | 0.01 | 99 | 1017.6 |
| 20260902133858 | 71 | 80 | 3.0 | 8.0 | 0.00 | 0.38 | 0.01 | 99 | 1017.6 |
| 20260902133758 | 71 | 141 | 1.0 | 8.0 | 0.00 | 0.38 | 0.01 | 99 | 1017.7 |
| 20260902133658 | 71 | 200 | 3.0 | 8.0 | 0.00 | 0.38 | 0.01 | 99 | 1017.6 |
| 20260902133558 | 71 | 66 | 2.0 | 8.0 | 0.00 | 0.38 | 0.01 | 99 | 1017.7 |
| 20260902133500 | 71 | 130 | 1.0 | 8.0 | 0.00 | 0.38 | 0.01 | 99 | 1017.6 |
| 20260902133357 | 71 | 84 | 1.0 | 8.0 | 0.00 | 0.38 | 0.01 | 99 | 1017.6 |
| 20260902133259 | 71 | 71 | 5.0 | 8.0 | 0.00 | 0.38 | 0.01 | 99 | 1017.6 |
| 20260902133159 | 71 | 68 | 3.0 | 8.0 | 0.00 | 0.38 | 0.01 | 99 | 1017.6 |
| 20260902133103 | 70 | 67 | 1.0 | 8.0 | 0.00 | 0.38 | 0.01 | 99 | 1017.6 |
| 20260902133000 | 70 | 71 | 6.0 | 6.0 | 0.00 | 0.38 | 0.01 | 99 | 1017.6 |
| 20260902132859 | 70 | 76 | 2.0 | 4.0 | 0.00 | 0.38 | 0.01 | 99 | 1017.7 |
| 20260902132800 | 70 | 76 | 0.0 | 4.0 | 0.00 | 0.38 | 0.01 | 99 | 1017.7 |
| 20260902132658 | 70 | 76 | 4.0 | 4.0 | 0.00 | 0.38 | 0.01 | 99 | 1017.8 |
| 20260902132558 | 70 | 121 | 2.0 | 5.0 | 0.00 | 0.38 | 0.01 | 99 | 1017.8 |
| 20260902132358 | 70 | 136 | 1.0 | 5.0 | 0.00 | 0.38 | 0.01 | 99 | 1017.8 |
| 20260902132259 | 70 | 136 | 1.0 | 5.0 | 0.00 | 0.38 | 0.01 | 99 | 1017.8 |
| 20260902132158 | 70 | 133 | 2.0 | 5.0 | 0.00 | 0.38 | 0.01 | 99 | 1017.8 |
| 20260902132059 | 70 | 222 | 0.0 | 5.0 | 0.00 | 0.38 | 0.01 | 99 | 1017.8 |
| 20260902132000 | 70 | 82 | 2.0 | 5.0 | 0.00 | 0.38 | 0.01 | 99 | 1017.8 |
| 20260902131858 | 70 | 29 | 3.0 | 5.0 | 0.00 | 0.38 | 0.01 | 99 | 1017.8 |
| 20260902131759 | 70 | 119 | 2.0 | 5.0 | 0.00 | 0.38 | 0.01 | 99 | 1017.8 |
| 20260902131659 | 70 | 98 | 2.0 | 5.0 | 0.00 | 0.38 | 0.01 | 99 | 1017.8 |
| 20260902131600 | 70 | 72 | 1.0 | 5.0 | 0.00 | 0.38 | 0.01 | 99 | 1017.8 |
| 20260902131358 | 70 | 99 | 3.0 | 5.0 | 0.00 | 0.38 | 0.01 | 99 | 1017.9 |
| 20260902131300 | 70 | 87 | 1.0 | 5.0 | 0.00 | 0.38 | 0.01 | 99 | 1018.0 |
| 20260902131158 | 70 | 76 | 3.0 | 5.0 | 0.00 | 0.38 | 0.01 | 99 | 1017.9 |
| 20260902131002 | 70 | 74 | 2.0 | 5.0 | 0.00 | 0.38 | 0.01 | 99 | 1017.8 |
| 20260902130858 | 70 | 82 | 2.0 | 5.0 | 0.00 | 0.38 | 0.01 | 99 | 1017.8 |
| 20260902130759 | 70 | 88 | 2.0 | 5.0 | 0.00 | 0.38 | 0.01 | 99 | 1017.8 |
| 20260902130658 | 70 | 117 | 1.0 | 5.0 | 0.00 | 0.38 | 0.01 | 99 | 1017.8 |
| 20260902130559 | 70 | 182 | 1.0 | 5.0 | 0.00 | 0.38 | 0.01 | 99 | 1017.7 |
| 20260902130500 | 70 | 143 | 2.0 | 5.0 | 0.00 | 0.38 | 0.01 | 99 | 1017.7 |
| 20260902130359 | 70 | 75 | 2.0 | 5.0 | 0.00 | 0.38 | 0.01 | 99 | 1017.7 |
| 20260902130300 | 70 | 84 | 2.0 | 5.0 | 0.00 | 0.38 | 0.01 | 99 | 1017.7 |
| 20260902130159 | 70 | 133 | 1.0 | 5.0 | 0.00 | 0.38 | 0.01 | 99 | 1017.7 |
| 20260902130100 | 70 | 92 | 2.0 | 5.0 | 0.00 | 0.38 | 0.01 | 99 | 1017.7 |
| 20260902130003 | 70 | 63 | 3.0 | 6.0 | 0.00 | 0.38 | 0.01 | 99 | 1017.7 |
| 20260902125859 | 70 | 67 | 1.0 | 6.0 | 0.00 | 0.38 | 0.01 | 99 | 1017.6 |
| 20260902125658 | 70 | 273 | 2.0 | 6.0 | 0.00 | 0.38 | 0.01 | 99 | 1017.5 |
| 20260902125600 | 70 | 290 | 1.0 | 6.0 | 0.00 | 0.38 | 0.01 | 99 | 1017.5 |
| 20260902125502 | 70 | 216 | 1.0 | 6.0 | 0.00 | 0.38 | 0.01 | 99 | 1017.4 |
| 20260902125400 | 70 | 167 | 3.0 | 6.0 | 0.00 | 0.38 | 0.01 | 99 | 1017.4 |
| 20260902125259 | 70 | 85 | 1.0 | 6.0 | 0.00 | 0.38 | 0.01 | 99 | 1017.3 |
| 20260902125158 | 70 | 85 | 1.0 | 6.0 | 0.00 | 0.38 | 0.01 | 99 | 1017.3 |
| 20260902125100 | 70 | 124 | 4.0 | 7.0 | 0.00 | 0.38 | 0.01 | 99 | 1017.3 |
| 20260902125003 | 70 | 53 | 1.0 | 6.0 | 0.00 | 0.38 | 0.01 | 99 | 1017.3 |
| 20260902124759 | 70 | 63 | 3.0 | 6.0 | 0.00 | 0.38 | 0.01 | 99 | 1017.3 |
| 20260902124659 | 70 | 81 | 2.0 | 6.0 | 0.00 | 0.38 | 0.01 | 99 | 1017.3 |
| 20260902124600 | 70 | 83 | 1.0 | 6.0 | 0.00 | 0.38 | 0.01 | 99 | 1017.3 |
| 20260902124502 | 70 | 82 | 1.0 | 6.0 | 0.00 | 0.38 | 0.01 | 99 | 1017.3 |
| 20260902124359 | 70 | 71 | 3.0 | 6.0 | 0.00 | 0.38 | 0.01 | 99 | 1017.3 |
| 20260902124259 | 70 | 72 | 1.0 | 6.0 | 0.00 | 0.38 | 0.01 | 99 | 1017.2 |
| 20260902124200 | 70 | 72 | 1.0 | 6.0 | 0.00 | 0.38 | 0.01 | 99 | 1017.2 |
| 20260902124059 | 70 | 36 | 4.0 | 5.0 | 0.00 | 0.38 | 0.01 | 99 | 1017.1 |
| 20260902124003 | 70 | 77 | 5.0 | 6.0 | 0.00 | 0.38 | 0.01 | 99 | 1017.1 |
| 20260902123900 | 70 | 92 | 0.0 | 5.0 | 0.00 | 0.38 | 0.01 | 99 | 1017.1 |
| 20260902123800 | 70 | 91 | 2.0 | 4.0 | 0.00 | 0.38 | 0.01 | 99 | 1017.1 |
| 20260902123659 | 70 | 67 | 0.0 | 4.0 | 0.00 | 0.38 | 0.01 | 99 | 1017.0 |
| 20260902123501 | 70 | 111 | 0.0 | 4.0 | 0.00 | 0.38 | 0.01 | 99 | 1017.0 |
| 20260902123400 | 70 | 100 | 0.0 | 2.0 | 0.00 | 0.38 | 0.01 | 99 | 1017.0 |
| 20260902123259 | 70 | 100 | 2.0 | 2.0 | 0.00 | 0.38 | 0.01 | 99 | 1017.0 |
| 20260902123100 | 70 | 111 | 2.0 | 4.0 | 0.00 | 0.38 | 0.01 | 100 | 1016.9 |
| 20260902123004 | 70 | 109 | 2.0 | 4.0 | 0.00 | 0.38 | 0.01 | 100 | 1017.0 |
| 20260902122800 | 70 | 62 | 0.0 | 4.0 | 0.00 | 0.38 | 0.01 | 100 | 1016.9 |
| 20260902122600 | 70 | 63 | 0.0 | 4.0 | 0.00 | 0.38 | 0.01 | 100 | 1016.9 |
| 20260902122501 | 70 | 63 | 1.0 | 4.0 | 0.00 | 0.38 | 0.01 | 100 | 1017.0 |
| 20260902122359 | 70 | 62 | 1.0 | 4.0 | 0.00 | 0.38 | 0.01 | 100 | 1016.9 |
| 20260902122300 | 70 | 63 | 0.0 | 4.0 | 0.00 | 0.38 | 0.01 | 100 | 1016.9 |
| 20260902122200 | 70 | 133 | 1.0 | 4.0 | 0.00 | 0.38 | 0.01 | 100 | 1016.9 |
| 20260902122059 | 70 | 147 | 2.0 | 4.0 | 0.00 | 0.38 | 0.01 | 100 | 1016.8 |
| 20260902122001 | 70 | 252 | 2.0 | 4.0 | 0.00 | 0.38 | 0.01 | 100 | 1016.9 |
| 20260902121900 | 70 | 97 | 1.0 | 3.0 | 0.00 | 0.38 | 0.01 | 100 | 1016.9 |
| 20260902121800 | 70 | 96 | 1.0 | 3.0 | 0.00 | 0.38 | 0.01 | 100 | 1016.9 |
| 20260902121658 | 70 | 96 | 2.0 | 5.0 | 0.00 | 0.38 | 0.01 | 100 | 1016.9 |
| 20260902121600 | 70 | 161 | 2.0 | 5.0 | 0.00 | 0.38 | 0.01 | 100 | 1017.0 |
| 20260902121503 | 69 | 118 | 0.0 | 5.0 | 0.00 | 0.38 | 0.01 | 100 | 1017.0 |
| 20260902121400 | 69 | 118 | 0.0 | 5.0 | 0.00 | 0.38 | 0.01 | 100 | 1017.0 |
| 20260902121259 | 69 | 119 | 2.0 | 5.0 | 0.00 | 0.38 | 0.01 | 100 | 1017.0 |
| 20260902121058 | 69 | 101 | 3.0 | 5.0 | 0.00 | 0.38 | 0.01 | 99 | 1017.0 |
| 20260902121004 | 69 | 93 | 1.0 | 5.0 | 0.00 | 0.38 | 0.01 | 99 | 1016.9 |
| 20260902120900 | 69 | 192 | 1.0 | 5.0 | 0.00 | 0.38 | 0.01 | 99 | 1017.0 |
| 20260902120759 | 69 | 148 | 4.0 | 4.0 | 0.00 | 0.38 | 0.01 | 100 | 1017.0 |
| 20260902120559 | 69 | 86 | 1.0 | 4.0 | 0.00 | 0.38 | 0.01 | 99 | 1017.0 |
| 20260902120503 | 69 | 96 | 1.0 | 4.0 | 0.00 | 0.38 | 0.01 | 99 | 1017.0 |
| 20260902120400 | 69 | 96 | 0.0 | 4.0 | 0.00 | 0.38 | 0.01 | 99 | 1017.0 |
| 20260902120300 | 69 | 96 | 1.0 | 4.0 | 0.00 | 0.38 | 0.01 | 99 | 1017.0 |
| 20260902120159 | 69 | 173 | 1.0 | 4.0 | 0.00 | 0.38 | 0.01 | 99 | 1017.1 |
| 20260902120100 | 69 | 173 | 0.0 | 4.0 | 0.00 | 0.38 | 0.01 | 99 | 1017.1 |
| 20260902120001 | 69 | 173 | 0.0 | 4.0 | 0.00 | 0.38 | 0.01 | 99 | 1017.1 |
| 20260902115859 | 69 | 173 | 1.0 | 4.0 | 0.00 | 0.38 | 0.01 | 100 | 1017.1 |
| 20260902115759 | 69 | 171 | 1.0 | 4.0 | 0.00 | 0.38 | 0.01 | 100 | 1017.1 |
| 20260902115600 | 69 | 99 | 2.0 | 4.0 | 0.00 | 0.38 | 0.01 | 100 | 1017.1 |
| 20260902115501 | 69 | 101 | 2.0 | 4.0 | 0.00 | 0.38 | 0.01 | 100 | 1017.0 |
| 20260902115357 | 69 | 101 | 0.0 | 4.0 | 0.00 | 0.38 | 0.01 | 99 | 1017.0 |
| 20260902115300 | 69 | 101 | 1.0 | 4.0 | 0.00 | 0.38 | 0.01 | 100 | 1017.0 |
| 20260902115158 | 69 | 101 | 2.0 | 4.0 | 0.00 | 0.38 | 0.01 | 99 | 1017.0 |
| 20260902115101 | 69 | 79 | 0.0 | 4.0 | 0.00 | 0.38 | 0.01 | 99 | 1017.0 |
| 20260902115000 | 69 | 78 | 0.0 | 4.0 | 0.00 | 0.38 | 0.01 | 99 | 1017.0 |
| 20260902114859 | 69 | 78 | 0.0 | 4.0 | 0.00 | 0.38 | 0.01 | 99 | 1017.0 |
| 20260902114759 | 69 | 78 | 0.0 | 4.0 | 0.00 | 0.38 | 0.01 | 99 | 1017.0 |
| 20260902114659 | 69 | 78 | 1.0 | 4.0 | 0.00 | 0.38 | 0.01 | 99 | 1017.0 |
| 20260902114559 | 69 | 78 | 3.0 | 4.0 | 0.00 | 0.38 | 0.01 | 99 | 1016.9 |
| 20260902114503 | 69 | 78 | 2.0 | 4.0 | 0.00 | 0.38 | 0.01 | 99 | 1016.9 |
| 20260902114359 | 69 | 78 | 2.0 | 4.0 | 0.00 | 0.38 | 0.01 | 99 | 1016.9 |
| 20260902114259 | 69 | 85 | 0.0 | 3.0 | 0.00 | 0.38 | 0.01 | 99 | 1016.9 |
| 20260902114158 | 69 | 85 | 1.0 | 3.0 | 0.00 | 0.38 | 0.01 | 99 | 1016.9 |
| 20260902114058 | 69 | 85 | 1.0 | 3.0 | 0.00 | 0.38 | 0.01 | 99 | 1016.9 |
| 20260902114000 | 69 | 84 | 1.0 | 3.0 | 0.00 | 0.38 | 0.01 | 99 | 1016.9 |
| 20260902113858 | 69 | 84 | 0.0 | 3.0 | 0.00 | 0.38 | 0.01 | 99 | 1016.9 |
| 20260902113657 | 69 | 85 | 0.0 | 3.0 | 0.00 | 0.38 | 0.01 | 100 | 1016.8 |
| 20260902113559 | 69 | 91 | 1.0 | 3.0 | 0.00 | 0.38 | 0.01 | 100 | 1016.8 |
| 20260902113459 | 69 | 95 | 1.0 | 4.0 | 0.00 | 0.38 | 0.01 | 100 | 1016.8 |
| 20260902113400 | 69 | 140 | 0.0 | 4.0 | 0.00 | 0.38 | 0.01 | 100 | 1016.7 |
| 20260902113259 | 69 | 140 | 1.0 | 4.0 | 0.00 | 0.38 | 0.01 | 100 | 1016.6 |
| 20260902112959 | 69 | 139 | 1.0 | 4.0 | 0.00 | 0.38 | 0.01 | 100 | 1016.6 |
| 20260902112900 | 69 | 90 | 0.0 | 4.0 | 0.00 | 0.38 | 0.01 | 100 | 1016.6 |
| 20260902112758 | 69 | 90 | 0.0 | 4.0 | 0.00 | 0.38 | 0.01 | 100 | 1016.5 |
| 20260902112659 | 69 | 90 | 0.0 | 4.0 | 0.00 | 0.38 | 0.01 | 100 | 1016.6 |
| 20260902112558 | 69 | 90 | 3.0 | 4.0 | 0.00 | 0.38 | 0.01 | 100 | 1016.7 |
| 20260902112500 | 69 | 96 | 0.0 | 4.0 | 0.00 | 0.38 | 0.01 | 100 | 1016.6 |
| 20260902112358 | 69 | 96 | 2.0 | 4.0 | 0.00 | 0.38 | 0.01 | 100 | 1016.7 |
| 20260902112258 | 69 | 96 | 2.0 | 4.0 | 0.00 | 0.38 | 0.01 | 100 | 1016.6 |
| 20260902112158 | 69 | 96 | 0.0 | 4.0 | 0.00 | 0.38 | 0.01 | 100 | 1016.6 |
| 20260902112100 | 69 | 96 | 2.0 | 4.0 | 0.00 | 0.38 | 0.01 | 100 | 1016.6 |
| 20260902112000 | 69 | 98 | 3.0 | 4.0 | 0.00 | 0.38 | 0.01 | 100 | 1016.6 |
| 20260902111859 | 69 | 113 | 0.0 | 3.0 | 0.00 | 0.38 | 0.01 | 100 | 1016.5 |
| 20260902111658 | 69 | 113 | 1.0 | 2.0 | 0.00 | 0.38 | 0.01 | 100 | 1016.5 |
| 20260902111558 | 69 | 113 | 1.0 | 2.0 | 0.00 | 0.38 | 0.01 | 100 | 1016.5 |
| 20260902111359 | 69 | 113 | 0.0 | 1.0 | 0.00 | 0.38 | 0.01 | 100 | 1016.5 |
| 20260902111300 | 69 | 113 | 0.0 | 1.0 | 0.00 | 0.38 | 0.01 | 100 | 1016.5 |
| 20260902111158 | 69 | 113 | 0.0 | 1.0 | 0.00 | 0.38 | 0.01 | 99 | 1016.6 |
| 20260902111059 | 69 | 113 | 0.0 | 1.0 | 0.00 | 0.38 | 0.01 | 99 | 1016.6 |
| 20260902110959 | 69 | 113 | 0.0 | 1.0 | 0.00 | 0.38 | 0.01 | 99 | 1016.6 |
| 20260902110858 | 69 | 113 | 0.0 | 1.0 | 0.00 | 0.38 | 0.01 | 99 | 1016.6 |
| 20260902110702 | 69 | 113 | 0.0 | 1.0 | 0.00 | 0.38 | 0.01 | 99 | 1016.7 |
| 20260902110558 | 69 | 113 | 0.0 | 1.0 | 0.00 | 0.38 | 0.01 | 99 | 1016.6 |
| 20260902110501 | 69 | 113 | 0.0 | 1.0 | 0.00 | 0.38 | 0.01 | 99 | 1016.7 |
| 20260902110359 | 69 | 113 | 0.0 | 1.0 | 0.00 | 0.38 | 0.01 | 99 | 1016.6 |
| 20260902110258 | 69 | 113 | 0.0 | 2.0 | 0.00 | 0.38 | 0.01 | 99 | 1016.6 |
| 20260902110159 | 69 | 113 | 0.0 | 2.0 | 0.00 | 0.38 | 0.01 | 99 | 1016.6 |
| 20260902105858 | 69 | 113 | 0.0 | 4.0 | 0.00 | 0.38 | 0.01 | 99 | 1016.7 |
| 20260902105758 | 69 | 113 | 0.0 | 4.0 | 0.00 | 0.38 | 0.01 | 99 | 1016.7 |
| 20260902105658 | 69 | 113 | 0.0 | 4.0 | 0.00 | 0.38 | 0.01 | 99 | 1016.7 |
| 20260902105558 | 69 | 113 | 0.0 | 4.0 | 0.00 | 0.38 | 0.01 | 99 | 1016.7 |
| 20260902105500 | 69 | 113 | 0.0 | 4.0 | 0.00 | 0.38 | 0.01 | 99 | 1016.7 |
| 20260902105359 | 69 | 113 | 1.0 | 4.0 | 0.00 | 0.38 | 0.01 | 99 | 1016.7 |
| 20260902105259 | 69 | 113 | 0.0 | 4.0 | 0.00 | 0.38 | 0.01 | 99 | 1016.7 |
| 20260902105158 | 69 | 113 | 0.0 | 4.0 | 0.00 | 0.38 | 0.01 | 99 | 1016.6 |
| 20260902105059 | 69 | 113 | 1.0 | 4.0 | 0.00 | 0.38 | 0.01 | 99 | 1016.6 |
| 20260902104959 | 68 | 113 | 0.0 | 4.0 | 0.00 | 0.38 | 0.01 | 99 | 1016.6 |
| 20260902104758 | 68 | 113 | 0.0 | 0.0 | 0.00 | 0.38 | 0.01 | 99 | 1016.6 |
| 20260902104658 | 68 | 113 | 0.0 | 0.0 | 0.00 | 0.38 | 0.01 | 99 | 1016.6 |
| 20260902104558 | 68 | 113 | 0.0 | 1.0 | 0.00 | 0.38 | 0.01 | 99 | 1016.6 |
| 20260902104500 | 68 | 113 | 0.0 | 2.0 | 0.00 | 0.38 | 0.01 | 99 | 1016.6 |
| 20260902104158 | 68 | 113 | 0.0 | 2.0 | 0.00 | 0.38 | 0.01 | 99 | 1016.6 |
| 20260902104100 | 68 | 113 | 0.0 | 2.0 | 0.00 | 0.38 | 0.01 | 99 | 1016.7 |
| 20260902103959 | 68 | 113 | 0.0 | 2.0 | 0.00 | 0.38 | 0.01 | 99 | 1016.7 |
| 20260902103858 | 68 | 113 | 0.0 | 2.0 | 0.00 | 0.38 | 0.01 | 99 | 1016.7 |
| 20260902103758 | 68 | 113 | 0.0 | 2.0 | 0.00 | 0.38 | 0.01 | 99 | 1016.7 |
| 20260902103659 | 68 | 113 | 0.0 | 2.0 | 0.00 | 0.38 | 0.01 | 99 | 1016.7 |
| 20260902103558 | 68 | 113 | 1.0 | 2.0 | 0.00 | 0.38 | 0.01 | 99 | 1016.7 |
| 20260902103501 | 68 | 113 | 1.0 | 2.0 | 0.00 | 0.38 | 0.01 | 99 | 1016.6 |
| 20260902103358 | 68 | 113 | 0.0 | 2.0 | 0.00 | 0.38 | 0.01 | 99 | 1016.7 |
| 20260902103257 | 68 | 113 | 0.0 | 2.0 | 0.00 | 0.38 | 0.01 | 99 | 1016.7 |
| 20260902103200 | 68 | 113 | 1.0 | 2.0 | 0.00 | 0.38 | 0.01 | 99 | 1016.6 |
| 20260902103057 | 68 | 113 | 1.0 | 2.0 | 0.00 | 0.38 | 0.01 | 99 | 1016.6 |
| 20260902103000 | 68 | 121 | 0.0 | 0.0 | 0.00 | 0.38 | 0.01 | 99 | 1016.7 |
| 20260902102859 | 68 | 121 | 0.0 | 0.0 | 0.00 | 0.38 | 0.01 | 99 | 1016.7 |
| 20260902102758 | 68 | 121 | 0.0 | 0.0 | 0.00 | 0.38 | 0.01 | 99 | 1016.7 |
| 20260902102659 | 68 | 121 | 0.0 | 0.0 | 0.00 | 0.38 | 0.01 | 99 | 1016.7 |
| 20260902102558 | 68 | 121 | 0.0 | 0.0 | 0.00 | 0.38 | 0.01 | 99 | 1016.8 |
| 20260902102500 | 68 | 121 | 0.0 | 0.0 | 0.00 | 0.38 | 0.01 | 99 | 1016.8 |
| 20260902102358 | 68 | 121 | 0.0 | 0.0 | 0.00 | 0.38 | 0.01 | 99 | 1016.8 |
| 20260902102258 | 68 | 121 | 0.0 | 0.0 | 0.00 | 0.38 | 0.01 | 99 | 1016.8 |
| 20260902102158 | 68 | 121 | 0.0 | 0.0 | 0.00 | 0.38 | 0.01 | 99 | 1016.8 |
| 20260902101858 | 68 | 121 | 0.0 | 2.0 | 0.00 | 0.38 | 0.01 | 99 | 1016.8 |
| 20260902101758 | 68 | 121 | 0.0 | 2.0 | 0.00 | 0.38 | 0.01 | 99 | 1016.8 |
| 20260902101559 | 68 | 121 | 0.0 | 2.0 | 0.00 | 0.38 | 0.01 | 99 | 1016.8 |
| 20260902101500 | 68 | 121 | 0.0 | 2.0 | 0.00 | 0.38 | 0.01 | 99 | 1016.8 |
| 20260902101358 | 68 | 121 | 0.0 | 2.0 | 0.00 | 0.38 | 0.01 | 99 | 1016.8 |
| 20260902101259 | 68 | 121 | 0.0 | 2.0 | 0.00 | 0.38 | 0.01 | 99 | 1016.8 |
| 20260902101158 | 68 | 121 | 0.0 | 2.0 | 0.00 | 0.38 | 0.01 | 99 | 1016.8 |
| 20260902101059 | 68 | 121 | 0.0 | 2.0 | 0.00 | 0.38 | 0.01 | 99 | 1016.8 |
| 20260902100958 | 68 | 121 | 0.0 | 2.0 | 0.00 | 0.38 | 0.01 | 99 | 1016.8 |
| 20260902100859 | 68 | 121 | 0.0 | 0.0 | 0.00 | 0.38 | 0.01 | 99 | 1016.8 |
| 20260902100759 | 68 | 121 | 0.0 | 0.0 | 0.00 | 0.38 | 0.01 | 99 | 1016.8 |
| 20260902100600 | 68 | 121 | 0.0 | 0.0 | 0.00 | 0.38 | 0.01 | 99 | 1016.8 |
| 20260902100500 | 68 | 121 | 0.0 | 0.0 | 0.00 | 0.38 | 0.01 | 99 | 1016.8 |
| 20260902100159 | 68 | 121 | 0.0 | 0.0 | 0.00 | 0.38 | 0.01 | 99 | 1016.8 |
| 20260902100058 | 68 | 121 | 0.0 | 0.0 | 0.00 | 0.38 | 0.01 | 99 | 1016.8 |
| 20260902100003 | 68 | 121 | 0.0 | 0.0 | 0.00 | 0.38 | 0.01 | 99 | 1016.8 |
| 20260902095758 | 68 | 121 | 0.0 | 0.0 | 0.00 | 0.38 | 0.01 | 99 | 1016.8 |
| 20260902095559 | 68 | 121 | 0.0 | 0.0 | 0.00 | 0.38 | 0.01 | 99 | 1016.8 |
| 20260902095359 | 68 | 121 | 0.0 | 0.0 | 0.00 | 0.38 | 0.01 | 99 | 1016.8 |
| 20260902095200 | 68 | 121 | 0.0 | 0.0 | 0.00 | 0.38 | 0.01 | 99 | 1016.8 |
| 20260902095100 | 68 | 121 | 0.0 | 0.0 | 0.00 | 0.38 | 0.01 | 99 | 1016.8 |
| 20260902094900 | 68 | 121 | 0.0 | 0.0 | 0.00 | 0.38 | 0.01 | 99 | 1016.8 |
| 20260902094800 | 68 | 121 | 0.0 | 0.0 | 0.00 | 0.38 | 0.01 | 99 | 1016.8 |
| 20260902094700 | 68 | 121 | 0.0 | 0.0 | 0.00 | 0.38 | 0.01 | 99 | 1016.8 |
| 20260902094504 | 68 | 121 | 0.0 | 0.0 | 0.00 | 0.38 | 0.01 | 99 | 1016.9 |
| 20260902094400 | 68 | 121 | 0.0 | 0.0 | 0.00 | 0.38 | 0.01 | 99 | 1016.9 |
| 20260902094258 | 68 | 121 | 0.0 | 0.0 | 0.00 | 0.38 | 0.01 | 99 | 1016.8 |
| 20260902094159 | 68 | 121 | 0.0 | 0.0 | 0.00 | 0.38 | 0.01 | 99 | 1016.8 |
| 20260902094100 | 68 | 121 | 0.0 | 0.0 | 0.00 | 0.38 | 0.01 | 99 | 1016.8 |
| 20260902094002 | 68 | 121 | 0.0 | 0.0 | 0.00 | 0.38 | 0.01 | 99 | 1016.9 |
| 20260902093859 | 68 | 121 | 0.0 | 0.0 | 0.00 | 0.38 | 0.01 | 99 | 1016.8 |
| 20260902093800 | 68 | 121 | 0.0 | 0.0 | 0.00 | 0.38 | 0.01 | 99 | 1016.8 |
| 20260902093600 | 68 | 121 | 0.0 | 0.0 | 0.00 | 0.38 | 0.01 | 99 | 1016.8 |
| 20260902093503 | 68 | 121 | 0.0 | 0.0 | 0.00 | 0.38 | 0.01 | 99 | 1016.8 |
| 20260902093359 | 68 | 121 | 0.0 | 0.0 | 0.00 | 0.38 | 0.01 | 99 | 1016.8 |
| 20260902093259 | 68 | 121 | 0.0 | 0.0 | 0.00 | 0.38 | 0.01 | 99 | 1016.8 |
| 20260902093159 | 68 | 121 | 0.0 | 0.0 | 0.00 | 0.38 | 0.01 | 99 | 1016.7 |
| 20260902093100 | 68 | 121 | 0.0 | 0.0 | 0.00 | 0.38 | 0.01 | 99 | 1016.7 |
| 20260902092858 | 68 | 121 | 0.0 | 0.0 | 0.00 | 0.38 | 0.01 | 99 | 1016.7 |
| 20260902092759 | 68 | 121 | 0.0 | 0.0 | 0.00 | 0.38 | 0.01 | 99 | 1016.7 |
| 20260902092700 | 68 | 121 | 0.0 | 0.0 | 0.00 | 0.38 | 0.01 | 99 | 1016.6 |
| 20260902092558 | 69 | 121 | 0.0 | 0.0 | 0.00 | 0.38 | 0.01 | 99 | 1016.6 |
| 20260902092500 | 69 | 121 | 0.0 | 0.0 | 0.00 | 0.38 | 0.01 | 99 | 1016.6 |
| 20260902092357 | 69 | 121 | 0.0 | 0.0 | 0.00 | 0.38 | 0.01 | 99 | 1016.6 |
| 20260902092159 | 69 | 121 | 0.0 | 0.0 | 0.00 | 0.38 | 0.01 | 99 | 1016.6 |
| 20260902092058 | 69 | 121 | 0.0 | 0.0 | 0.00 | 0.38 | 0.01 | 99 | 1016.6 |
| 20260902092000 | 69 | 121 | 0.0 | 0.0 | 0.00 | 0.38 | 0.01 | 99 | 1016.6 |
| 20260902091901 | 69 | 121 | 0.0 | 0.0 | 0.00 | 0.38 | 0.01 | 99 | 1016.5 |
| 20260902091758 | 69 | 121 | 0.0 | 0.0 | 0.00 | 0.38 | 0.01 | 99 | 1016.5 |
| 20260902091700 | 69 | 121 | 0.0 | 0.0 | 0.00 | 0.38 | 0.01 | 99 | 1016.5 |
| 20260902091558 | 69 | 121 | 0.0 | 0.0 | 0.00 | 0.38 | 0.01 | 99 | 1016.5 |
| 20260902091400 | 69 | 121 | 0.0 | 0.0 | 0.00 | 0.38 | 0.01 | 99 | 1016.5 |
| 20260902091258 | 69 | 121 | 0.0 | 0.0 | 0.00 | 0.38 | 0.01 | 99 | 1016.5 |
| 20260902091158 | 69 | 121 | 0.0 | 0.0 | 0.00 | 0.38 | 0.01 | 99 | 1016.4 |
| 20260902091057 | 69 | 121 | 0.0 | 0.0 | 0.00 | 0.38 | 0.01 | 99 | 1016.4 |
| 20260902090959 | 69 | 121 | 0.0 | 0.0 | 0.00 | 0.38 | 0.01 | 99 | 1016.4 |
| 20260902090858 | 69 | 121 | 0.0 | 0.0 | 0.01 | 0.38 | 0.01 | 99 | 1016.4 |
| 20260902090759 | 69 | 121 | 0.0 | 0.0 | 0.01 | 0.38 | 0.01 | 99 | 1016.4 |
| 20260902090658 | 69 | 121 | 0.0 | 0.0 | 0.01 | 0.38 | 0.01 | 99 | 1016.4 |
| 20260902090559 | 69 | 121 | 0.0 | 0.0 | 0.01 | 0.38 | 0.01 | 99 | 1016.4 |
| 20260902090500 | 69 | 121 | 0.0 | 0.0 | 0.01 | 0.38 | 0.01 | 99 | 1016.4 |
| 20260902090358 | 69 | 121 | 0.0 | 0.0 | 0.01 | 0.38 | 0.01 | 99 | 1016.3 |
| 20260902090258 | 69 | 121 | 0.0 | 0.0 | 0.01 | 0.38 | 0.01 | 99 | 1016.3 |
| 20260902090158 | 69 | 121 | 0.0 | 0.0 | 0.01 | 0.38 | 0.01 | 99 | 1016.3 |
| 20260902090058 | 69 | 121 | 0.0 | 0.0 | 0.01 | 0.38 | 0.01 | 99 | 1016.3 |
| 20260902090001 | 69 | 121 | 0.0 | 0.0 | 0.01 | 0.38 | 0.01 | 99 | 1016.3 |
| 20260902085858 | 69 | 121 | 0.0 | 0.0 | 0.01 | 0.38 | 0.01 | 99 | 1016.3 |
| 20260902085758 | 69 | 121 | 0.0 | 0.0 | 0.01 | 0.38 | 0.01 | 99 | 1016.3 |
| 20260902085658 | 69 | 121 | 0.0 | 0.0 | 0.01 | 0.38 | 0.01 | 99 | 1016.3 |
| 20260902085558 | 69 | 121 | 0.0 | 0.0 | 0.01 | 0.38 | 0.01 | 99 | 1016.3 |
| 20260902085459 | 69 | 121 | 0.0 | 0.0 | 0.01 | 0.38 | 0.01 | 99 | 1016.3 |
| 20260902085358 | 69 | 121 | 0.0 | 0.0 | 0.01 | 0.38 | 0.01 | 99 | 1016.3 |
| 20260902085258 | 69 | 121 | 0.0 | 0.0 | 0.01 | 0.38 | 0.01 | 99 | 1016.3 |
| 20260902085159 | 69 | 121 | 0.0 | 0.0 | 0.01 | 0.38 | 0.01 | 99 | 1016.3 |
| 20260902085059 | 69 | 121 | 0.0 | 0.0 | 0.01 | 0.38 | 0.01 | 99 | 1016.3 |
| 20260902085000 | 69 | 121 | 0.0 | 0.0 | 0.01 | 0.38 | 0.01 | 99 | 1016.3 |
| 20260902084859 | 69 | 121 | 0.0 | 0.0 | 0.01 | 0.38 | 0.01 | 99 | 1016.3 |
| 20260902084759 | 69 | 121 | 0.0 | 0.0 | 0.01 | 0.38 | 0.01 | 99 | 1016.3 |
| 20260902084657 | 69 | 121 | 0.0 | 1.0 | 0.01 | 0.38 | 0.01 | 99 | 1016.2 |
| 20260902084559 | 69 | 121 | 0.0 | 1.0 | 0.01 | 0.38 | 0.01 | 99 | 1016.2 |
| 20260902084500 | 69 | 121 | 0.0 | 1.0 | 0.01 | 0.38 | 0.01 | 99 | 1016.2 |
| 20260902084358 | 69 | 121 | 0.0 | 1.0 | 0.01 | 0.38 | 0.01 | 99 | 1016.2 |
| 20260902084258 | 69 | 121 | 0.0 | 1.0 | 0.01 | 0.38 | 0.01 | 99 | 1016.2 |
| 20260902084159 | 69 | 121 | 0.0 | 1.0 | 0.01 | 0.38 | 0.01 | 99 | 1016.3 |
| 20260902084058 | 69 | 121 | 0.0 | 1.0 | 0.01 | 0.38 | 0.01 | 99 | 1016.2 |
| 20260902084000 | 69 | 121 | 0.0 | 1.0 | 0.01 | 0.38 | 0.01 | 99 | 1016.2 |
| 20260902083858 | 69 | 121 | 0.0 | 1.0 | 0.01 | 0.38 | 0.01 | 99 | 1016.2 |
| 20260902083758 | 69 | 121 | 0.0 | 1.0 | 0.01 | 0.38 | 0.01 | 99 | 1016.2 |
| 20260902083658 | 69 | 121 | 0.0 | 1.0 | 0.01 | 0.38 | 0.01 | 99 | 1016.1 |
| 20260902083558 | 69 | 121 | 0.0 | 1.0 | 0.01 | 0.38 | 0.01 | 99 | 1016.1 |
| 20260902083459 | 69 | 121 | 0.0 | 2.0 | 0.01 | 0.38 | 0.01 | 99 | 1016.1 |
| 20260902083358 | 69 | 121 | 0.0 | 2.0 | 0.01 | 0.38 | 0.01 | 99 | 1016.1 |
| 20260902083258 | 69 | 121 | 0.0 | 2.0 | 0.01 | 0.38 | 0.01 | 99 | 1016.1 |
| 20260902083158 | 69 | 121 | 0.0 | 2.0 | 0.01 | 0.38 | 0.01 | 99 | 1016.1 |
| 20260902083059 | 69 | 121 | 0.0 | 2.0 | 0.01 | 0.38 | 0.01 | 99 | 1016.1 |
| 20260902082959 | 69 | 121 | 0.0 | 2.0 | 0.01 | 0.38 | 0.01 | 99 | 1016.1 |
| 20260902082859 | 69 | 121 | 0.0 | 2.0 | 0.01 | 0.38 | 0.01 | 99 | 1016.1 |
| 20260902082759 | 69 | 121 | 0.0 | 2.0 | 0.01 | 0.38 | 0.01 | 99 | 1016.1 |
| 20260902082700 | 69 | 121 | 0.0 | 2.0 | 0.01 | 0.38 | 0.01 | 99 | 1016.0 |
| 20260902082558 | 69 | 121 | 1.0 | 2.0 | 0.01 | 0.38 | 0.01 | 99 | 1016.0 |
| 20260902082459 | 69 | 121 | 0.0 | 2.0 | 0.01 | 0.38 | 0.01 | 99 | 1016.0 |
| 20260902082358 | 69 | 121 | 0.0 | 2.0 | 0.01 | 0.38 | 0.01 | 99 | 1016.0 |
| 20260902082258 | 69 | 121 | 0.0 | 2.0 | 0.01 | 0.38 | 0.01 | 99 | 1015.9 |
| 20260902082158 | 69 | 121 | 0.0 | 2.0 | 0.01 | 0.38 | 0.01 | 99 | 1015.9 |
| 20260902082059 | 69 | 121 | 0.0 | 2.0 | 0.01 | 0.38 | 0.01 | 99 | 1015.9 |
| 20260902081857 | 69 | 121 | 0.0 | 2.0 | 0.01 | 0.38 | 0.01 | 99 | 1015.9 |
| 20260902081758 | 69 | 121 | 0.0 | 2.0 | 0.01 | 0.38 | 0.01 | 99 | 1015.9 |
| 20260902081558 | 69 | 121 | 2.0 | 2.0 | 0.01 | 0.38 | 0.01 | 99 | 1015.9 |
| 20260902081500 | 69 | 160 | 0.0 | 0.0 | 0.01 | 0.38 | 0.01 | 99 | 1016.0 |
| 20260902081359 | 69 | 160 | 0.0 | 0.0 | 0.01 | 0.38 | 0.01 | 99 | 1016.0 |
| 20260902081258 | 69 | 160 | 0.0 | 0.0 | 0.01 | 0.38 | 0.01 | 99 | 1016.0 |
| 20260902081158 | 69 | 160 | 0.0 | 0.0 | 0.01 | 0.38 | 0.01 | 99 | 1016.0 |
| 20260902081059 | 69 | 160 | 0.0 | 0.0 | 0.01 | 0.38 | 0.01 | 99 | 1016.0 |
| 20260902080959 | 69 | 160 | 0.0 | 0.0 | 0.01 | 0.38 | 0.01 | 99 | 1016.0 |
| 20260902080658 | 69 | 160 | 0.0 | 0.0 | 0.00 | 0.37 | 0.00 | 99 | 1016.0 |
| 20260902080459 | 69 | 160 | 0.0 | 0.0 | 0.00 | 0.37 | 0.00 | 99 | 1016.0 |
| 20260902080358 | 69 | 160 | 0.0 | 0.0 | 0.00 | 0.37 | 0.00 | 99 | 1016.0 |
| 20260902080258 | 69 | 160 | 0.0 | 0.0 | 0.00 | 0.37 | 0.00 | 99 | 1016.0 |
| 20260902080159 | 69 | 160 | 0.0 | 0.0 | 0.00 | 0.37 | 0.00 | 99 | 1016.0 |
| 20260902080059 | 69 | 160 | 0.0 | 0.0 | 0.00 | 0.37 | 0.00 | 99 | 1016.1 |
| 20260902075859 | 70 | 160 | 0.0 | 0.0 | 0.00 | 0.37 | 0.00 | 99 | 1016.1 |
| 20260902075758 | 70 | 160 | 0.0 | 0.0 | 0.00 | 0.37 | 0.00 | 99 | 1016.1 |
| 20260902075701 | 70 | 160 | 0.0 | 0.0 | 0.00 | 0.37 | 0.00 | 99 | 1016.1 |
| 20260902075558 | 70 | 160 | 0.0 | 0.0 | 0.00 | 0.37 | 0.00 | 99 | 1016.1 |
| 20260902075400 | 70 | 160 | 0.0 | 0.0 | 0.00 | 0.37 | 0.00 | 99 | 1016.1 |
| 20260902075258 | 70 | 160 | 0.0 | 0.0 | 0.00 | 0.37 | 0.00 | 99 | 1016.0 |
| 20260902075157 | 70 | 160 | 0.0 | 0.0 | 0.00 | 0.37 | 0.00 | 99 | 1016.0 |
| 20260902075057 | 70 | 160 | 0.0 | 0.0 | 0.00 | 0.37 | 0.00 | 99 | 1015.9 |
| 20260902075003 | 70 | 160 | 0.0 | 0.0 | 0.00 | 0.37 | 0.00 | 99 | 1015.9 |
| 20260902074857 | 70 | 160 | 0.0 | 0.0 | 0.00 | 0.37 | 0.00 | 99 | 1015.9 |
| 20260902074759 | 70 | 160 | 0.0 | 0.0 | 0.00 | 0.37 | 0.00 | 99 | 1015.9 |
| 20260902074657 | 70 | 160 | 0.0 | 0.0 | 0.00 | 0.37 | 0.00 | 99 | 1015.9 |
| 20260902074559 | 70 | 160 | 0.0 | 0.0 | 0.00 | 0.37 | 0.00 | 99 | 1015.9 |
| 20260902074459 | 70 | 160 | 0.0 | 0.0 | 0.00 | 0.37 | 0.00 | 99 | 1015.9 |
| 20260902074357 | 70 | 160 | 0.0 | 0.0 | 0.00 | 0.37 | 0.00 | 99 | 1015.9 |
| 20260902074258 | 70 | 160 | 0.0 | 0.0 | 0.00 | 0.37 | 0.00 | 99 | 1015.9 |
| 20260902074158 | 70 | 160 | 0.0 | 0.0 | 0.00 | 0.37 | 0.00 | 99 | 1015.9 |
| 20260902074059 | 70 | 160 | 0.0 | 0.0 | 0.00 | 0.37 | 0.00 | 99 | 1015.8 |
| 20260902074000 | 70 | 160 | 0.0 | 0.0 | 0.00 | 0.37 | 0.00 | 99 | 1015.8 |
| 20260902073859 | 70 | 160 | 0.0 | 0.0 | 0.00 | 0.37 | 0.00 | 99 | 1015.7 |
| 20260902073758 | 70 | 160 | 0.0 | 0.0 | 0.00 | 0.37 | 0.00 | 99 | 1015.8 |
| 20260902073600 | 70 | 160 | 0.0 | 0.0 | 0.00 | 0.37 | 0.00 | 99 | 1015.7 |
| 20260902073503 | 70 | 160 | 0.0 | 0.0 | 0.00 | 0.37 | 0.00 | 99 | 1015.8 |
| 20260902073358 | 70 | 160 | 0.0 | 0.0 | 0.00 | 0.37 | 0.00 | 99 | 1015.8 |
| 20260902073259 | 70 | 160 | 0.0 | 0.0 | 0.00 | 0.37 | 0.00 | 99 | 1015.8 |
| 20260902073158 | 70 | 160 | 0.0 | 0.0 | 0.00 | 0.37 | 0.00 | 99 | 1015.8 |
| 20260902073058 | 70 | 160 | 0.0 | 0.0 | 0.00 | 0.37 | 0.00 | 99 | 1015.9 |
| 20260902073000 | 70 | 160 | 0.0 | 0.0 | 0.00 | 0.37 | 0.00 | 99 | 1015.9 |
| 20260902072858 | 70 | 160 | 0.0 | 0.0 | 0.00 | 0.37 | 0.00 | 99 | 1015.9 |
| 20260902072758 | 70 | 160 | 0.0 | 0.0 | 0.00 | 0.37 | 0.00 | 99 | 1015.8 |
| 20260902072658 | 70 | 160 | 0.0 | 0.0 | 0.00 | 0.37 | 0.00 | 99 | 1015.9 |
| 20260902072558 | 70 | 160 | 0.0 | 0.0 | 0.00 | 0.37 | 0.00 | 99 | 1015.8 |
| 20260902072500 | 70 | 160 | 0.0 | 0.0 | 0.00 | 0.37 | 0.00 | 99 | 1015.9 |
| 20260902072259 | 70 | 160 | 0.0 | 0.0 | 0.00 | 0.37 | 0.00 | 99 | 1015.8 |
| 20260902072159 | 70 | 160 | 0.0 | 0.0 | 0.00 | 0.37 | 0.00 | 99 | 1015.8 |
| 20260902072000 | 70 | 160 | 0.0 | 0.0 | 0.00 | 0.37 | 0.00 | 99 | 1015.8 |
| 20260902071858 | 70 | 160 | 0.0 | 0.0 | 0.00 | 0.37 | 0.00 | 99 | 1015.8 |
| 20260902071758 | 70 | 160 | 0.0 | 0.0 | 0.00 | 0.37 | 0.00 | 99 | 1015.8 |
| 20260902071658 | 70 | 160 | 0.0 | 0.0 | 0.00 | 0.37 | 0.00 | 99 | 1015.8 |
| 20260902071558 | 70 | 160 | 0.0 | 0.0 | 0.00 | 0.37 | 0.00 | 99 | 1015.9 |
| 20260902071459 | 70 | 160 | 0.0 | 0.0 | 0.00 | 0.37 | 0.00 | 99 | 1015.8 |
| 20260902071358 | 70 | 160 | 0.0 | 0.0 | 0.00 | 0.37 | 0.00 | 99 | 1015.8 |
| 20260902071259 | 70 | 160 | 0.0 | 0.0 | 0.00 | 0.37 | 0.00 | 99 | 1015.8 |
| 20260902071158 | 70 | 160 | 0.0 | 0.0 | 0.00 | 0.37 | 0.00 | 99 | 1015.8 |
| 20260902071059 | 70 | 160 | 0.0 | 0.0 | 0.00 | 0.37 | 0.00 | 99 | 1015.7 |
| 20260902071000 | 70 | 160 | 0.0 | 0.0 | 0.00 | 0.37 | 0.00 | 99 | 1015.7 |
| 20260902070859 | 70 | 160 | 0.0 | 0.0 | 0.00 | 0.37 | 0.00 | 99 | 1015.7 |
| 20260902070758 | 70 | 160 | 0.0 | 0.0 | 0.00 | 0.37 | 0.00 | 99 | 1015.7 |
| 20260902070659 | 70 | 160 | 0.0 | 0.0 | 0.00 | 0.37 | 0.00 | 99 | 1015.7 |
| 20260902070459 | 70 | 160 | 0.0 | 0.0 | 0.00 | 0.37 | 0.00 | 99 | 1015.7 |
| 20260902070401 | 70 | 160 | 0.0 | 0.0 | 0.00 | 0.37 | 0.00 | 99 | 1015.7 |
| 20260902070159 | 70 | 160 | 0.0 | 0.0 | 0.00 | 0.37 | 0.00 | 99 | 1015.6 |
| 20260902070058 | 70 | 160 | 0.0 | 0.0 | 0.00 | 0.37 | 0.00 | 99 | 1015.7 |
| 20260902070003 | 70 | 160 | 0.0 | 0.0 | 0.00 | 0.37 | 0.00 | 99 | 1015.7 |
| 20260902065859 | 70 | 160 | 0.0 | 0.0 | 0.00 | 0.37 | 0.00 | 99 | 1015.6 |
| 20260902065759 | 70 | 160 | 0.0 | 0.0 | 0.00 | 0.37 | 0.00 | 99 | 1015.7 |
| 20260902065659 | 70 | 160 | 0.0 | 0.0 | 0.00 | 0.37 | 0.00 | 99 | 1015.6 |
| 20260902065600 | 70 | 160 | 0.0 | 0.0 | 0.00 | 0.37 | 0.00 | 99 | 1015.6 |
| 20260902065400 | 69 | 160 | 0.0 | 0.0 | 0.00 | 0.37 | 0.00 | 99 | 1015.6 |
| 20260902065259 | 69 | 160 | 0.0 | 0.0 | 0.00 | 0.37 | 0.00 | 99 | 1015.6 |
| 20260902065201 | 69 | 160 | 0.0 | 0.0 | 0.00 | 0.37 | 0.00 | 99 | 1015.6 |
| 20260902065059 | 69 | 160 | 0.0 | 0.0 | 0.00 | 0.37 | 0.00 | 98 | 1015.6 |
| 20260902065001 | 69 | 160 | 0.0 | 0.0 | 0.00 | 0.37 | 0.00 | 98 | 1015.6 |
| 20260902064759 | 69 | 160 | 0.0 | 0.0 | 0.00 | 0.37 | 0.00 | 98 | 1015.6 |
| 20260902064659 | 69 | 160 | 0.0 | 0.0 | 0.00 | 0.37 | 0.00 | 98 | 1015.6 |
| 20260902064504 | 69 | 160 | 0.0 | 0.0 | 0.00 | 0.37 | 0.00 | 98 | 1015.6 |
| 20260902064359 | 69 | 160 | 0.0 | 0.0 | 0.00 | 0.37 | 0.00 | 98 | 1015.7 |
| 20260902064259 | 69 | 160 | 0.0 | 0.0 | 0.00 | 0.37 | 0.00 | 98 | 1015.7 |
| 20260902064158 | 69 | 160 | 0.0 | 0.0 | 0.00 | 0.37 | 0.00 | 98 | 1015.7 |
| 20260902064100 | 69 | 160 | 0.0 | 0.0 | 0.00 | 0.37 | 0.00 | 98 | 1015.7 |
| 20260902064004 | 69 | 160 | 0.0 | 0.0 | 0.00 | 0.37 | 0.00 | 98 | 1015.7 |
| 20260902063900 | 69 | 160 | 0.0 | 0.0 | 0.00 | 0.37 | 0.00 | 98 | 1015.7 |
| 20260902063759 | 69 | 160 | 0.0 | 0.0 | 0.00 | 0.37 | 0.00 | 98 | 1015.8 |
| 20260902063659 | 69 | 160 | 0.0 | 0.0 | 0.00 | 0.37 | 0.00 | 98 | 1015.8 |
| 20260902063503 | 70 | 160 | 0.0 | 0.0 | 0.00 | 0.37 | 0.00 | 98 | 1015.9 |
| 20260902063359 | 70 | 160 | 0.0 | 0.0 | 0.00 | 0.37 | 0.00 | 98 | 1015.8 |
| 20260902063258 | 70 | 160 | 0.0 | 0.0 | 0.00 | 0.37 | 0.00 | 98 | 1015.8 |
| 20260902063159 | 70 | 160 | 0.0 | 0.0 | 0.00 | 0.37 | 0.00 | 98 | 1015.8 |
| 20260902063059 | 70 | 160 | 0.0 | 0.0 | 0.00 | 0.37 | 0.00 | 98 | 1015.8 |
| 20260902063003 | 70 | 160 | 0.0 | 0.0 | 0.00 | 0.37 | 0.00 | 98 | 1015.8 |
| 20260902062859 | 70 | 160 | 0.0 | 0.0 | 0.00 | 0.37 | 0.00 | 98 | 1015.8 |
| 20260902062759 | 70 | 160 | 0.0 | 0.0 | 0.00 | 0.37 | 0.00 | 98 | 1015.8 |
| 20260902062659 | 70 | 160 | 0.0 | 0.0 | 0.00 | 0.37 | 0.00 | 98 | 1015.8 |
| 20260902062503 | 70 | 160 | 0.0 | 0.0 | 0.00 | 0.37 | 0.00 | 98 | 1015.8 |
| 20260902062359 | 70 | 160 | 0.0 | 0.0 | 0.00 | 0.37 | 0.00 | 98 | 1015.8 |
| 20260902062259 | 70 | 160 | 0.0 | 0.0 | 0.00 | 0.37 | 0.00 | 98 | 1015.8 |
| 20260902062158 | 70 | 160 | 0.0 | 0.0 | 0.00 | 0.37 | 0.00 | 98 | 1015.8 |
| 20260902061859 | 70 | 160 | 0.0 | 0.0 | 0.00 | 0.37 | 0.00 | 98 | 1015.8 |
| 20260902061759 | 70 | 160 | 0.0 | 0.0 | 0.00 | 0.37 | 0.00 | 98 | 1015.8 |
| 20260902061659 | 70 | 160 | 0.0 | 0.0 | 0.00 | 0.37 | 0.00 | 98 | 1015.8 |
| 20260902061502 | 70 | 160 | 0.0 | 0.0 | 0.00 | 0.37 | 0.00 | 98 | 1015.8 |
| 20260902061359 | 70 | 160 | 0.0 | 0.0 | 0.00 | 0.37 | 0.00 | 98 | 1015.8 |
| 20260902061300 | 70 | 160 | 0.0 | 0.0 | 0.00 | 0.37 | 0.00 | 98 | 1015.7 |
| 20260902061158 | 70 | 160 | 0.0 | 0.0 | 0.00 | 0.37 | 0.00 | 98 | 1015.8 |
| 20260902061059 | 70 | 160 | 0.0 | 0.0 | 0.00 | 0.37 | 0.00 | 98 | 1015.8 |
| 20260902061003 | 70 | 160 | 0.0 | 0.0 | 0.00 | 0.37 | 0.00 | 98 | 1015.8 |
| 20260902060800 | 70 | 160 | 0.0 | 0.0 | 0.00 | 0.37 | 0.00 | 98 | 1015.8 |
| 20260902060701 | 70 | 160 | 0.0 | 0.0 | 0.00 | 0.37 | 0.00 | 98 | 1015.8 |
| 20260902060559 | 70 | 160 | 0.0 | 0.0 | 0.00 | 0.37 | 0.00 | 98 | 1015.8 |
| 20260902060500 | 70 | 160 | 0.0 | 0.0 | 0.00 | 0.37 | 0.00 | 98 | 1015.8 |
| 20260902060400 | 70 | 160 | 0.0 | 0.0 | 0.00 | 0.37 | 0.00 | 98 | 1015.8 |
| 20260902060301 | 70 | 160 | 0.0 | 0.0 | 0.00 | 0.37 | 0.00 | 98 | 1015.8 |
| 20260902060159 | 70 | 160 | 0.0 | 0.0 | 0.00 | 0.37 | 0.00 | 98 | 1015.8 |
| 20260902060100 | 70 | 160 | 0.0 | 0.0 | 0.00 | 0.37 | 0.00 | 98 | 1015.8 |
| 20260902055859 | 70 | 160 | 0.0 | 0.0 | 0.00 | 0.37 | 0.00 | 98 | 1015.8 |
| 20260902055759 | 70 | 160 | 0.0 | 0.0 | 0.00 | 0.37 | 0.00 | 98 | 1015.7 |
| 20260902055659 | 70 | 160 | 0.0 | 0.0 | 0.00 | 0.37 | 0.00 | 98 | 1015.8 |
| 20260902055500 | 70 | 160 | 0.0 | 0.0 | 0.00 | 0.37 | 0.00 | 98 | 1015.7 |
| 20260902055359 | 70 | 160 | 0.0 | 0.0 | 0.00 | 0.37 | 0.00 | 98 | 1015.8 |
| 20260902055159 | 70 | 160 | 0.0 | 0.0 | 0.00 | 0.37 | 0.00 | 98 | 1015.8 |
| 20260902055058 | 70 | 160 | 0.0 | 0.0 | 0.00 | 0.37 | 0.00 | 98 | 1015.8 |
| 20260902055004 | 70 | 160 | 0.0 | 0.0 | 0.00 | 0.37 | 0.00 | 98 | 1015.8 |
| 20260902054900 | 70 | 160 | 0.0 | 0.0 | 0.00 | 0.37 | 0.00 | 98 | 1015.8 |
| 20260902054759 | 70 | 160 | 0.0 | 0.0 | 0.00 | 0.37 | 0.00 | 98 | 1015.8 |
| 20260902054659 | 70 | 160 | 0.0 | 0.0 | 0.00 | 0.37 | 0.00 | 98 | 1015.8 |
| 20260902054600 | 70 | 160 | 0.0 | 0.0 | 0.00 | 0.37 | 0.00 | 98 | 1015.8 |
| 20260902054358 | 70 | 160 | 0.0 | 0.0 | 0.00 | 0.37 | 0.00 | 98 | 1015.9 |
| 20260902054259 | 70 | 160 | 0.0 | 0.0 | 0.00 | 0.37 | 0.00 | 98 | 1015.9 |
| 20260902054159 | 70 | 160 | 0.0 | 0.0 | 0.00 | 0.37 | 0.00 | 98 | 1015.8 |
| 20260902054100 | 70 | 160 | 0.0 | 0.0 | 0.00 | 0.37 | 0.00 | 98 | 1015.8 |
| 20260902054001 | 70 | 160 | 0.0 | 0.0 | 0.00 | 0.37 | 0.00 | 98 | 1015.8 |
| 20260902053858 | 70 | 160 | 0.0 | 0.0 | 0.00 | 0.37 | 0.00 | 98 | 1015.8 |
| 20260902053600 | 70 | 160 | 0.0 | 0.0 | 0.00 | 0.37 | 0.00 | 98 | 1015.8 |
| 20260902053501 | 70 | 160 | 0.0 | 0.0 | 0.00 | 0.37 | 0.00 | 98 | 1015.8 |
| 20260902053259 | 70 | 160 | 0.0 | 0.0 | 0.00 | 0.37 | 0.00 | 98 | 1015.9 |
| 20260902053158 | 70 | 160 | 0.0 | 0.0 | 0.00 | 0.37 | 0.00 | 98 | 1015.9 |
| 20260902053100 | 70 | 160 | 0.0 | 0.0 | 0.00 | 0.37 | 0.00 | 98 | 1015.9 |
| 20260902052859 | 70 | 160 | 0.0 | 0.0 | 0.00 | 0.37 | 0.00 | 98 | 1015.9 |
| 20260902052800 | 70 | 160 | 0.0 | 0.0 | 0.00 | 0.37 | 0.00 | 98 | 1015.9 |
| 20260902052700 | 70 | 160 | 0.0 | 0.0 | 0.00 | 0.37 | 0.00 | 98 | 1016.0 |
| 20260902052600 | 70 | 160 | 0.0 | 0.0 | 0.00 | 0.37 | 0.00 | 98 | 1016.0 |
| 20260902052503 | 70 | 160 | 0.0 | 0.0 | 0.00 | 0.37 | 0.00 | 98 | 1015.9 |
| 20260902052359 | 70 | 160 | 0.0 | 0.0 | 0.00 | 0.37 | 0.00 | 98 | 1015.9 |
| 20260902052300 | 70 | 160 | 0.0 | 0.0 | 0.00 | 0.37 | 0.00 | 98 | 1015.9 |
| 20260902052059 | 70 | 160 | 0.0 | 0.0 | 0.00 | 0.37 | 0.00 | 98 | 1015.9 |
| 20260902052003 | 70 | 160 | 0.0 | 0.0 | 0.00 | 0.37 | 0.00 | 98 | 1015.9 |
| 20260902051900 | 70 | 160 | 0.0 | 0.0 | 0.00 | 0.37 | 0.00 | 98 | 1015.9 |
| 20260902051801 | 70 | 160 | 0.0 | 0.0 | 0.00 | 0.37 | 0.00 | 98 | 1015.8 |
| 20260902051659 | 70 | 160 | 0.0 | 0.0 | 0.00 | 0.37 | 0.00 | 98 | 1015.8 |
| 20260902051503 | 70 | 160 | 0.0 | 0.0 | 0.00 | 0.37 | 0.00 | 97 | 1015.8 |
| 20260902051359 | 70 | 160 | 0.0 | 0.0 | 0.00 | 0.37 | 0.00 | 97 | 1015.8 |
| 20260902051300 | 70 | 160 | 0.0 | 0.0 | 0.00 | 0.37 | 0.00 | 97 | 1015.8 |
| 20260902051159 | 71 | 160 | 0.0 | 0.0 | 0.00 | 0.37 | 0.00 | 97 | 1015.8 |
| 20260902051059 | 71 | 160 | 0.0 | 0.0 | 0.00 | 0.37 | 0.00 | 97 | 1015.8 |
| 20260902051000 | 71 | 160 | 0.0 | 0.0 | 0.00 | 0.37 | 0.00 | 97 | 1015.8 |
| 20260902050900 | 71 | 160 | 0.0 | 0.0 | 0.00 | 0.37 | 0.00 | 97 | 1015.8 |
| 20260902050659 | 71 | 160 | 0.0 | 0.0 | 0.00 | 0.37 | 0.00 | 97 | 1015.8 |
| 20260902050559 | 71 | 160 | 0.0 | 0.0 | 0.00 | 0.37 | 0.00 | 97 | 1015.8 |
| 20260902050504 | 71 | 160 | 0.0 | 0.0 | 0.00 | 0.37 | 0.00 | 98 | 1015.8 |
| 20260902050359 | 71 | 160 | 0.0 | 0.0 | 0.00 | 0.37 | 0.00 | 98 | 1015.8 |
| 20260902050259 | 71 | 160 | 0.0 | 0.0 | 0.00 | 0.37 | 0.00 | 98 | 1015.8 |
| 20260902045900 | 71 | 160 | 0.0 | 0.0 | 0.00 | 0.37 | 0.00 | 98 | 1015.6 |
| 20260902045700 | 71 | 160 | 0.0 | 0.0 | 0.00 | 0.37 | 0.00 | 98 | 1015.7 |
| 20260902045601 | 71 | 160 | 0.0 | 0.0 | 0.00 | 0.37 | 0.00 | 97 | 1015.7 |
| 20260902045503 | 71 | 160 | 0.0 | 0.0 | 0.00 | 0.37 | 0.00 | 97 | 1015.7 |
| 20260902045359 | 71 | 160 | 0.0 | 0.0 | 0.00 | 0.37 | 0.00 | 97 | 1015.7 |
| 20260902045300 | 71 | 160 | 0.0 | 0.0 | 0.00 | 0.37 | 0.00 | 97 | 1015.7 |
| 20260902045158 | 71 | 160 | 0.0 | 0.0 | 0.00 | 0.37 | 0.00 | 97 | 1015.7 |
| 20260902045059 | 71 | 160 | 0.0 | 0.0 | 0.00 | 0.37 | 0.00 | 97 | 1015.7 |
| 20260902045000 | 71 | 160 | 0.0 | 0.0 | 0.00 | 0.37 | 0.00 | 97 | 1015.6 |
| 20260902044859 | 71 | 160 | 0.0 | 0.0 | 0.00 | 0.37 | 0.00 | 97 | 1015.7 |
| 20260902044800 | 71 | 160 | 0.0 | 0.0 | 0.00 | 0.37 | 0.00 | 97 | 1015.6 |
| 20260902044503 | 71 | 160 | 0.0 | 0.0 | 0.00 | 0.37 | 0.00 | 97 | 1015.6 |
| 20260902044400 | 71 | 160 | 0.0 | 0.0 | 0.00 | 0.37 | 0.00 | 97 | 1015.5 |
| 20260902044259 | 71 | 160 | 0.0 | 0.0 | 0.00 | 0.37 | 0.00 | 97 | 1015.5 |
| 20260902044100 | 71 | 160 | 0.0 | 0.0 | 0.01 | 0.37 | 0.00 | 97 | 1015.4 |
| 20260902044001 | 71 | 160 | 0.0 | 0.0 | 0.01 | 0.37 | 0.00 | 97 | 1015.4 |
| 20260902043901 | 71 | 160 | 0.0 | 0.0 | 0.01 | 0.37 | 0.00 | 97 | 1015.5 |
| 20260902043759 | 71 | 160 | 0.0 | 0.0 | 0.01 | 0.37 | 0.00 | 97 | 1015.5 |
| 20260902043659 | 71 | 160 | 0.0 | 0.0 | 0.01 | 0.37 | 0.00 | 97 | 1015.5 |
| 20260902043559 | 71 | 160 | 0.0 | 0.0 | 0.01 | 0.37 | 0.00 | 97 | 1015.4 |
| 20260902043500 | 71 | 160 | 0.0 | 0.0 | 0.01 | 0.37 | 0.00 | 97 | 1015.4 |
| 20260902043400 | 71 | 160 | 0.0 | 0.0 | 0.01 | 0.37 | 0.00 | 97 | 1015.4 |
| 20260902043258 | 71 | 160 | 0.0 | 0.0 | 0.01 | 0.37 | 0.00 | 97 | 1015.4 |
| 20260902043200 | 71 | 160 | 0.0 | 0.0 | 0.01 | 0.37 | 0.00 | 97 | 1015.4 |
| 20260902043100 | 71 | 160 | 0.0 | 0.0 | 0.02 | 0.37 | 0.00 | 97 | 1015.4 |
| 20260902043003 | 71 | 160 | 0.0 | 0.0 | 0.02 | 0.37 | 0.00 | 97 | 1015.4 |
| 20260902042859 | 71 | 160 | 0.0 | 0.0 | 0.03 | 0.37 | 0.00 | 97 | 1015.4 |
| 20260902042800 | 71 | 160 | 0.0 | 0.0 | 0.03 | 0.37 | 0.00 | 97 | 1015.4 |
| 20260902042700 | 71 | 160 | 0.0 | 0.0 | 0.03 | 0.37 | 0.00 | 97 | 1015.3 |
| 20260902042359 | 71 | 160 | 0.0 | 0.0 | 0.04 | 0.37 | 0.00 | 97 | 1015.2 |
| 20260902042259 | 71 | 160 | 0.0 | 0.0 | 0.04 | 0.37 | 0.00 | 97 | 1015.2 |
| 20260902042200 | 71 | 160 | 0.0 | 0.0 | 0.04 | 0.37 | 0.00 | 97 | 1015.2 |
| 20260902042102 | 71 | 160 | 0.0 | 0.0 | 0.05 | 0.37 | 0.00 | 97 | 1015.3 |
| 20260902042002 | 71 | 160 | 0.0 | 0.0 | 0.05 | 0.37 | 0.00 | 97 | 1015.3 |
| 20260902041759 | 71 | 160 | 0.0 | 0.0 | 0.05 | 0.37 | 0.00 | 97 | 1015.3 |
| 20260902041658 | 71 | 160 | 0.0 | 0.0 | 0.06 | 0.37 | 0.00 | 97 | 1015.3 |
| 20260902041559 | 71 | 160 | 0.0 | 0.0 | 0.06 | 0.37 | 0.00 | 97 | 1015.2 |
| 20260902041501 | 71 | 160 | 0.0 | 0.0 | 0.06 | 0.37 | 0.00 | 97 | 1015.2 |
| 20260902041259 | 71 | 160 | 0.0 | 0.0 | 0.07 | 0.37 | 0.00 | 97 | 1015.3 |
| 20260902041200 | 71 | 160 | 0.0 | 0.0 | 0.07 | 0.37 | 0.00 | 97 | 1015.3 |
| 20260902041100 | 71 | 160 | 0.0 | 0.0 | 0.08 | 0.37 | 0.00 | 97 | 1015.3 |
| 20260902040901 | 71 | 160 | 0.0 | 0.0 | 0.09 | 0.37 | 0.00 | 97 | 1015.2 |
| 20260902040800 | 71 | 160 | 0.0 | 0.0 | 0.09 | 0.37 | 0.00 | 97 | 1015.2 |
| 20260902040702 | 71 | 160 | 0.0 | 0.0 | 0.09 | 0.37 | 0.00 | 97 | 1015.2 |
| 20260902040559 | 71 | 160 | 0.0 | 0.0 | 0.10 | 0.37 | 0.00 | 97 | 1015.2 |
| 20260902040503 | 71 | 160 | 0.0 | 0.0 | 0.11 | 0.37 | 0.00 | 97 | 1015.2 |
| 20260902040400 | 71 | 160 | 0.0 | 0.0 | 0.11 | 0.37 | 0.00 | 97 | 1015.2 |
| 20260902040300 | 71 | 160 | 0.0 | 0.0 | 0.11 | 0.37 | 0.00 | 97 | 1015.2 |
| 20260902040200 | 71 | 160 | 0.0 | 0.0 | 0.11 | 0.37 | 0.00 | 97 | 1015.2 |
| 20260902040006 | 71 | 160 | 0.0 | 0.0 | 0.13 | 0.37 | 0.37 | 97 | 1015.2 |
| 20260902035900 | 71 | 160 | 0.0 | 0.0 | 0.13 | 0.37 | 0.37 | 97 | 1015.1 |
| 20260902035600 | 71 | 160 | 0.0 | 0.0 | 0.14 | 0.37 | 0.37 | 97 | 1015.0 |
| 20260902035503 | 71 | 160 | 0.0 | 0.0 | 0.14 | 0.37 | 0.37 | 97 | 1015.0 |
| 20260902035401 | 71 | 160 | 0.0 | 0.0 | 0.14 | 0.37 | 0.37 | 97 | 1015.1 |
| 20260902035300 | 71 | 160 | 0.0 | 0.0 | 0.14 | 0.37 | 0.37 | 97 | 1015.2 |
| 20260902035201 | 71 | 160 | 0.0 | 0.0 | 0.14 | 0.37 | 0.37 | 97 | 1015.2 |
| 20260902035100 | 71 | 160 | 0.0 | 0.0 | 0.15 | 0.37 | 0.37 | 97 | 1015.1 |
| 20260902035004 | 71 | 160 | 0.0 | 0.0 | 0.15 | 0.37 | 0.37 | 97 | 1015.0 |
| 20260902034801 | 71 | 160 | 0.0 | 0.0 | 0.15 | 0.37 | 0.37 | 97 | 1015.0 |
| 20260902034700 | 71 | 160 | 0.0 | 0.0 | 0.15 | 0.37 | 0.37 | 97 | 1015.0 |
| 20260902034600 | 71 | 160 | 0.0 | 0.0 | 0.15 | 0.37 | 0.37 | 97 | 1015.0 |
| 20260902034503 | 71 | 160 | 0.0 | 0.0 | 0.15 | 0.37 | 0.37 | 97 | 1015.0 |
| 20260902034401 | 71 | 160 | 0.0 | 0.0 | 0.15 | 0.37 | 0.37 | 97 | 1015.0 |
| 20260902034300 | 71 | 160 | 0.0 | 0.0 | 0.15 | 0.37 | 0.37 | 97 | 1015.0 |
| 20260902034200 | 71 | 160 | 0.0 | 0.0 | 0.14 | 0.36 | 0.36 | 96 | 1015.0 |
| 20260902034100 | 71 | 160 | 0.0 | 0.0 | 0.14 | 0.36 | 0.36 | 96 | 1015.0 |
| 20260902033800 | 71 | 160 | 0.0 | 0.0 | 0.14 | 0.36 | 0.36 | 96 | 1015.0 |
| 20260902033601 | 71 | 160 | 0.0 | 0.0 | 0.14 | 0.36 | 0.36 | 96 | 1015.0 |
| 20260902033503 | 71 | 160 | 0.0 | 0.0 | 0.14 | 0.36 | 0.36 | 96 | 1015.0 |
| 20260902033400 | 71 | 170 | 0.0 | 0.0 | 0.14 | 0.36 | 0.36 | 96 | 1014.9 |
| 20260902033059 | 71 | 170 | 0.0 | 0.0 | 0.13 | 0.35 | 0.35 | 96 | 1014.8 |
| 20260902033004 | 71 | 170 | 0.0 | 0.0 | 0.13 | 0.35 | 0.35 | 96 | 1014.8 |
| 20260902032901 | 71 | 170 | 0.0 | 0.0 | 0.12 | 0.34 | 0.34 | 96 | 1014.9 |
| 20260902032801 | 71 | 170 | 0.0 | 0.0 | 0.12 | 0.34 | 0.34 | 96 | 1015.1 |
| 20260902032701 | 71 | 254 | 0.0 | 0.0 | 0.12 | 0.34 | 0.34 | 96 | 1015.2 |
| 20260902032601 | 71 | 254 | 0.0 | 0.0 | 0.12 | 0.34 | 0.34 | 96 | 1015.3 |
| 20260902032401 | 71 | 254 | 0.0 | 0.0 | 0.11 | 0.33 | 0.33 | 96 | 1015.4 |
| 20260902032301 | 71 | 254 | 0.0 | 0.0 | 0.11 | 0.33 | 0.33 | 96 | 1015.3 |
| 20260902032201 | 71 | 254 | 0.0 | 0.0 | 0.11 | 0.33 | 0.33 | 96 | 1015.4 |
| 20260902032100 | 71 | 254 | 0.0 | 0.0 | 0.10 | 0.32 | 0.32 | 96 | 1015.4 |
| 20260902031901 | 71 | 254 | 0.0 | 0.0 | 0.10 | 0.32 | 0.32 | 96 | 1015.6 |
| 20260902031800 | 71 | 254 | 0.0 | 0.0 | 0.11 | 0.32 | 0.32 | 96 | 1015.7 |
| 20260902031701 | 71 | 254 | 0.0 | 0.0 | 0.10 | 0.31 | 0.31 | 96 | 1015.8 |
| 20260902031602 | 71 | 254 | 0.0 | 0.0 | 0.10 | 0.31 | 0.31 | 96 | 1015.8 |
| 20260902031504 | 71 | 254 | 0.0 | 0.0 | 0.10 | 0.30 | 0.30 | 96 | 1015.8 |
| 20260902031400 | 71 | 254 | 0.0 | 0.0 | 0.10 | 0.30 | 0.30 | 96 | 1015.9 |
| 20260902031300 | 71 | 254 | 0.0 | 0.0 | 0.10 | 0.30 | 0.30 | 96 | 1015.8 |
| 20260902031100 | 71 | 254 | 0.0 | 2.0 | 0.09 | 0.29 | 0.29 | 96 | 1015.9 |
| 20260902031003 | 71 | 254 | 0.0 | 2.0 | 0.09 | 0.28 | 0.28 | 96 | 1016.1 |
| 20260902030901 | 71 | 254 | 0.0 | 4.0 | 0.09 | 0.28 | 0.28 | 96 | 1016.2 |
| 20260902030802 | 72 | 254 | 0.0 | 4.0 | 0.09 | 0.28 | 0.28 | 96 | 1016.2 |
| 20260902030701 | 72 | 254 | 0.0 | 4.0 | 0.09 | 0.27 | 0.27 | 96 | 1016.4 |
| 20260902030600 | 72 | 254 | 0.0 | 4.0 | 0.10 | 0.27 | 0.27 | 96 | 1016.4 |
| 20260902030505 | 72 | 254 | 0.0 | 4.0 | 0.10 | 0.26 | 0.26 | 96 | 1016.5 |
| 20260902030400 | 72 | 254 | 0.0 | 4.0 | 0.10 | 0.26 | 0.26 | 96 | 1016.4 |
| 20260902030301 | 72 | 254 | 0.0 | 4.0 | 0.11 | 0.26 | 0.26 | 96 | 1016.4 |
| 20260902030200 | 72 | 254 | 0.0 | 4.0 | 0.11 | 0.25 | 0.25 | 96 | 1016.4 |
| 20260902030004 | 72 | 254 | 1.0 | 4.0 | 0.10 | 0.24 | 0.24 | 96 | 1016.5 |
| 20260902025900 | 72 | 274 | 1.0 | 4.0 | 0.12 | 0.25 | 0.24 | 96 | 1016.6 |
| 20260902025759 | 72 | 273 | 2.0 | 4.0 | 0.12 | 0.25 | 0.24 | 96 | 1016.7 |
| 20260902025503 | 72 | 301 | 1.0 | 4.0 | 0.13 | 0.24 | 0.23 | 96 | 1016.7 |
| 20260902025401 | 72 | 301 | 2.0 | 4.0 | 0.13 | 0.24 | 0.23 | 96 | 1016.6 |
| 20260902025300 | 72 | 301 | 4.0 | 4.0 | 0.14 | 0.24 | 0.23 | 96 | 1016.4 |
| 20260902025159 | 72 | 299 | 3.0 | 4.0 | 0.15 | 0.24 | 0.23 | 96 | 1016.2 |
| 20260902025100 | 72 | 184 | 2.0 | 3.0 | 0.14 | 0.23 | 0.22 | 96 | 1016.0 |
| 20260902024900 | 72 | 159 | 1.0 | 2.0 | 0.15 | 0.23 | 0.22 | 96 | 1015.7 |
| 20260902024800 | 72 | 159 | 1.0 | 2.0 | 0.16 | 0.23 | 0.22 | 96 | 1015.6 |
| 20260902024701 | 72 | 158 | 2.0 | 2.0 | 0.16 | 0.23 | 0.22 | 96 | 1015.5 |
| 20260902024600 | 72 | 158 | 0.0 | 1.0 | 0.16 | 0.23 | 0.22 | 96 | 1015.2 |
| 20260902024504 | 72 | 158 | 0.0 | 1.0 | 0.16 | 0.23 | 0.22 | 96 | 1015.2 |
| 20260902024400 | 72 | 158 | 0.0 | 1.0 | 0.16 | 0.23 | 0.22 | 96 | 1015.1 |
| 20260902024200 | 72 | 158 | 0.0 | 0.0 | 0.17 | 0.23 | 0.22 | 96 | 1014.9 |
| 20260902024101 | 72 | 158 | 0.0 | 0.0 | 0.17 | 0.23 | 0.22 | 96 | 1014.7 |
| 20260902024004 | 72 | 158 | 0.0 | 0.0 | 0.17 | 0.23 | 0.22 | 96 | 1014.8 |
| 20260902023801 | 72 | 158 | 0.0 | 0.0 | 0.17 | 0.23 | 0.22 | 96 | 1014.7 |
| 20260902023701 | 72 | 158 | 0.0 | 0.0 | 0.17 | 0.23 | 0.22 | 96 | 1014.7 |
| 20260902023601 | 72 | 158 | 0.0 | 0.0 | 0.17 | 0.23 | 0.22 | 96 | 1014.6 |
| 20260902023503 | 72 | 158 | 0.0 | 0.0 | 0.17 | 0.23 | 0.22 | 96 | 1014.6 |
| 20260902023204 | 72 | 158 | 0.0 | 0.0 | 0.17 | 0.23 | 0.22 | 96 | 1014.5 |
| 20260902023100 | 72 | 158 | 0.0 | 0.0 | 0.17 | 0.23 | 0.22 | 96 | 1014.6 |
| 20260902023004 | 72 | 158 | 0.0 | 0.0 | 0.17 | 0.23 | 0.22 | 96 | 1014.7 |
| 20260902022859 | 72 | 158 | 0.0 | 1.0 | 0.17 | 0.23 | 0.22 | 96 | 1014.8 |
| 20260902022800 | 72 | 158 | 0.0 | 2.0 | 0.17 | 0.23 | 0.22 | 96 | 1014.8 |
| 20260902022701 | 72 | 158 | 0.0 | 2.0 | 0.17 | 0.23 | 0.22 | 97 | 1014.9 |
| 20260902022600 | 72 | 158 | 0.0 | 2.0 | 0.17 | 0.23 | 0.22 | 97 | 1014.9 |
| 20260902022503 | 72 | 158 | 0.0 | 2.0 | 0.17 | 0.23 | 0.22 | 97 | 1015.0 |
| 20260902022401 | 72 | 158 | 0.0 | 2.0 | 0.17 | 0.23 | 0.22 | 97 | 1015.0 |
| 20260902022301 | 72 | 158 | 0.0 | 2.0 | 0.17 | 0.23 | 0.22 | 97 | 1015.0 |
| 20260902022200 | 72 | 158 | 0.0 | 2.0 | 0.18 | 0.23 | 0.22 | 97 | 1015.0 |
| 20260902022004 | 72 | 158 | 0.0 | 2.0 | 0.18 | 0.23 | 0.22 | 97 | 1015.0 |
| 20260902021900 | 72 | 158 | 1.0 | 1.0 | 0.18 | 0.23 | 0.22 | 97 | 1015.0 |
| 20260902021701 | 72 | 57 | 1.0 | 1.0 | 0.18 | 0.22 | 0.21 | 97 | 1015.0 |
| 20260902021503 | 72 | 57 | 1.0 | 1.0 | 0.18 | 0.21 | 0.20 | 97 | 1015.0 |
| 20260902021300 | 72 | 57 | 0.0 | 1.0 | 0.19 | 0.21 | 0.20 | 97 | 1015.0 |
| 20260902021200 | 72 | 57 | 0.0 | 1.0 | 0.19 | 0.21 | 0.20 | 97 | 1015.0 |
| 20260902021101 | 72 | 57 | 0.0 | 1.0 | 0.20 | 0.21 | 0.20 | 97 | 1015.0 |
| 20260902021004 | 72 | 57 | 0.0 | 1.0 | 0.19 | 0.20 | 0.19 | 97 | 1015.1 |
| 20260902020800 | 72 | 57 | 0.0 | 1.0 | 0.18 | 0.19 | 0.18 | 97 | 1015.1 |
| 20260902020700 | 72 | 57 | 0.0 | 1.0 | 0.18 | 0.19 | 0.18 | 96 | 1015.1 |
| 20260902020600 | 72 | 57 | 0.0 | 1.0 | 0.17 | 0.18 | 0.17 | 97 | 1015.2 |
| 20260902020401 | 73 | 57 | 0.0 | 1.0 | 0.16 | 0.17 | 0.16 | 96 | 1015.3 |
| 20260902020200 | 73 | 57 | 0.0 | 1.0 | 0.14 | 0.15 | 0.14 | 96 | 1015.3 |
| 20260902020106 | 73 | 57 | 0.0 | 2.0 | 0.14 | 0.15 | 0.14 | 96 | 1015.2 |
| 20260902020005 | 73 | 57 | 0.0 | 2.0 | 0.13 | 0.14 | 0.13 | 96 | 1015.0 |
| 20260902015801 | 73 | 57 | 0.0 | 4.0 | 0.12 | 0.13 | 0.12 | 96 | 1015.0 |
| 20260902015700 | 73 | 57 | 0.0 | 4.0 | 0.11 | 0.12 | 0.11 | 95 | 1015.0 |
| 20260902015600 | 73 | 57 | 0.0 | 4.0 | 0.10 | 0.11 | 0.10 | 95 | 1015.0 |
| 20260902015503 | 73 | 57 | 0.0 | 4.0 | 0.10 | 0.11 | 0.10 | 95 | 1015.0 |
| 20260902015401 | 73 | 57 | 0.0 | 4.0 | 0.10 | 0.11 | 0.10 | 95 | 1015.0 |
| 20260902015301 | 73 | 57 | 0.0 | 4.0 | 0.09 | 0.10 | 0.09 | 95 | 1015.0 |
| 20260902015200 | 73 | 57 | 2.0 | 4.0 | 0.08 | 0.09 | 0.08 | 94 | 1015.0 |
| 20260902015100 | 74 | 58 | 0.0 | 8.0 | 0.08 | 0.09 | 0.08 | 94 | 1014.9 |
| 20260902015004 | 74 | 57 | 4.0 | 8.0 | 0.07 | 0.08 | 0.07 | 94 | 1014.8 |
| 20260902014901 | 74 | 100 | 0.0 | 8.0 | 0.07 | 0.08 | 0.07 | 94 | 1014.8 |
| 20260902014802 | 74 | 66 | 0.0 | 11.0 | 0.06 | 0.07 | 0.06 | 94 | 1014.8 |
| 20260902014701 | 74 | 66 | 1.0 | 11.0 | 0.06 | 0.07 | 0.06 | 94 | 1014.7 |
| 20260902014600 | 74 | 97 | 2.0 | 11.0 | 0.06 | 0.07 | 0.06 | 93 | 1014.7 |
| 20260902014504 | 74 | 98 | 0.0 | 11.0 | 0.06 | 0.07 | 0.06 | 93 | 1014.6 |
| 20260902014300 | 74 | 73 | 1.0 | 11.0 | 0.05 | 0.06 | 0.05 | 93 | 1014.4 |
| 20260902014200 | 74 | 28 | 2.0 | 11.0 | 0.05 | 0.06 | 0.05 | 93 | 1014.3 |
| 20260902014100 | 74 | 92 | 2.0 | 11.0 | 0.05 | 0.06 | 0.05 | 93 | 1014.3 |
| 20260902013901 | 74 | 57 | 9.0 | 11.0 | 0.05 | 0.06 | 0.05 | 93 | 1014.2 |
| 20260902013802 | 74 | 76 | 5.0 | 11.0 | 0.05 | 0.06 | 0.05 | 93 | 1014.1 |
| 20260902013701 | 74 | 17 | 1.0 | 16.0 | 0.05 | 0.06 | 0.05 | 93 | 1014.0 |
| 20260902013603 | 74 | 26 | 1.0 | 16.0 | 0.05 | 0.06 | 0.05 | 93 | 1014.0 |
| 20260902013505 | 74 | 65 | 2.0 | 16.0 | 0.05 | 0.06 | 0.05 | 93 | 1014.0 |
| 20260902013401 | 74 | 32 | 5.0 | 16.0 | 0.05 | 0.06 | 0.05 | 93 | 1014.1 |
| 20260902013307 | 74 | 9 | 3.0 | 16.0 | 0.05 | 0.06 | 0.05 | 93 | 1014.1 |
| 20260902013201 | 74 | 54 | 3.0 | 16.0 | 0.05 | 0.06 | 0.05 | 93 | 1014.1 |
| 20260902013100 | 74 | 43 | 5.0 | 16.0 | 0.05 | 0.06 | 0.05 | 93 | 1014.1 |
| 20260902013005 | 74 | 24 | 3.0 | 16.0 | 0.05 | 0.06 | 0.05 | 93 | 1014.1 |
| 20260902012759 | 74 | 22 | 8.0 | 15.0 | 0.05 | 0.06 | 0.05 | 94 | 1014.0 |
| 20260902012701 | 74 | 19 | 5.0 | 15.0 | 0.05 | 0.06 | 0.05 | 94 | 1013.9 |
| 20260902012503 | 74 | 27 | 11.0 | 15.0 | 0.05 | 0.06 | 0.05 | 93 | 1013.9 |
| 20260902012401 | 74 | 15 | 5.0 | 15.0 | 0.05 | 0.06 | 0.05 | 93 | 1013.9 |
| 20260902012300 | 74 | 69 | 9.0 | 20.0 | 0.05 | 0.06 | 0.05 | 93 | 1013.9 |
| 20260902012100 | 75 | 92 | 7.0 | 20.0 | 0.04 | 0.05 | 0.04 | 92 | 1013.9 |
| 20260902012004 | 75 | 42 | 4.0 | 20.0 | 0.04 | 0.05 | 0.04 | 92 | 1014.0 |
| 20260902011802 | 76 | 13 | 8.0 | 20.0 | 0.04 | 0.05 | 0.04 | 91 | 1014.0 |
| 20260902011700 | 76 | 9 | 5.0 | 20.0 | 0.03 | 0.04 | 0.03 | 90 | 1014.0 |
| 20260902011600 | 76 | 38 | 5.0 | 20.0 | 0.02 | 0.03 | 0.02 | 89 | 1014.1 |
| 20260902011403 | 77 | 17 | 10.0 | 20.0 | 0.02 | 0.03 | 0.02 | 88 | 1014.2 |
| 20260902011307 | 77 | 16 | 9.0 | 17.0 | 0.01 | 0.02 | 0.01 | 87 | 1014.2 |
| 20260902011201 | 78 | 51 | 11.0 | 17.0 | 0.01 | 0.02 | 0.01 | 87 | 1014.2 |
| 20260902011100 | 78 | 34 | 11.0 | 15.0 | 0.00 | 0.01 | 0.00 | 86 | 1014.2 |
| 20260902011004 | 78 | 9 | 9.0 | 15.0 | 0.00 | 0.01 | 0.00 | 86 | 1014.2 |
| 20260902010901 | 78 | 50 | 10.0 | 15.0 | 0.00 | 0.01 | 0.00 | 86 | 1014.2 |
| 20260902010700 | 78 | 5 | 11.0 | 13.0 | 0.00 | 0.01 | 0.00 | 86 | 1014.1 |
| 20260902010600 | 78 | 15 | 5.0 | 13.0 | 0.00 | 0.01 | 0.00 | 86 | 1014.0 |
| 20260902010400 | 78 | 5 | 5.0 | 9.0 | 0.00 | 0.01 | 0.00 | 85 | 1013.9 |
| 20260902010201 | 78 | 84 | 3.0 | 5.0 | 0.00 | 0.01 | 0.00 | 84 | 1013.9 |
| 20260902010100 | 78 | 40 | 3.0 | 5.0 | 0.00 | 0.01 | 0.00 | 84 | 1013.7 |
| 20260902010005 | 78 | 47 | 2.0 | 5.0 | 0.00 | 0.01 | 0.00 | 83 | 1013.7 |
| 20260902005801 | 78 | 156 | 0.0 | 3.0 | 0.00 | 0.02 | 0.00 | 84 | 1013.3 |
| 20260902005705 | 78 | 156 | 1.0 | 4.0 | 0.00 | 0.02 | 0.00 | 83 | 1013.3 |
| 20260902005600 | 78 | 65 | 1.0 | 4.0 | 0.00 | 0.02 | 0.00 | 83 | 1013.4 |
| 20260902005504 | 78 | 65 | 0.0 | 5.0 | 0.00 | 0.02 | 0.00 | 83 | 1013.3 |
| 20260902005401 | 78 | 65 | 0.0 | 5.0 | 0.00 | 0.02 | 0.00 | 83 | 1013.4 |
| 20260902005301 | 78 | 65 | 0.0 | 7.0 | 0.00 | 0.02 | 0.00 | 83 | 1013.3 |
| 20260902005200 | 78 | 65 | 1.0 | 7.0 | 0.00 | 0.02 | 0.00 | 83 | 1013.4 |
| 20260902005100 | 78 | 65 | 1.0 | 7.0 | 0.00 | 0.02 | 0.00 | 83 | 1013.4 |
| 20260902005004 | 78 | 65 | 1.0 | 7.0 | 0.00 | 0.02 | 0.00 | 83 | 1013.3 |
| 20260902004901 | 78 | 65 | 2.0 | 7.0 | 0.00 | 0.02 | 0.00 | 83 | 1013.3 |
| 20260902004801 | 78 | 73 | 0.0 | 7.0 | 0.00 | 0.02 | 0.00 | 83 | 1013.2 |
| 20260902004704 | 78 | 74 | 3.0 | 7.0 | 0.00 | 0.02 | 0.00 | 83 | 1013.2 |
| 20260902004600 | 78 | 77 | 1.0 | 7.0 | 0.00 | 0.02 | 0.00 | 82 | 1013.3 |
| 20260902004507 | 78 | 74 | 5.0 | 7.0 | 0.00 | 0.02 | 0.00 | 82 | 1013.2 |
| 20260902004400 | 78 | 96 | 2.0 | 7.0 | 0.00 | 0.02 | 0.00 | 82 | 1013.2 |
| 20260902004301 | 78 | 72 | 1.0 | 5.0 | 0.00 | 0.02 | 0.00 | 82 | 1013.2 |
| 20260902004200 | 78 | 103 | 1.0 | 5.0 | 0.00 | 0.02 | 0.00 | 82 | 1013.1 |
| 20260902004101 | 78 | 103 | 1.0 | 7.0 | 0.00 | 0.02 | 0.00 | 82 | 1013.1 |
| 20260902004005 | 78 | 103 | 0.0 | 7.0 | 0.00 | 0.02 | 0.00 | 82 | 1013.1 |
| 20260902003902 | 78 | 100 | 0.0 | 7.0 | 0.00 | 0.02 | 0.00 | 82 | 1013.1 |
| 20260902003800 | 78 | 100 | 1.0 | 7.0 | 0.00 | 0.02 | 0.00 | 82 | 1013.1 |
| 20260902003700 | 79 | 78 | 1.0 | 7.0 | 0.00 | 0.02 | 0.00 | 82 | 1013.2 |
| 20260902003600 | 79 | 78 | 1.0 | 7.0 | 0.00 | 0.02 | 0.00 | 82 | 1013.1 |
| 20260902003503 | 79 | 78 | 2.0 | 7.0 | 0.00 | 0.02 | 0.00 | 82 | 1013.1 |
| 20260902003401 | 79 | 71 | 2.0 | 7.0 | 0.00 | 0.02 | 0.00 | 82 | 1013.0 |
| 20260902003300 | 79 | 71 | 1.0 | 7.0 | 0.00 | 0.02 | 0.00 | 82 | 1013.0 |
| 20260902003200 | 79 | 63 | 1.0 | 7.0 | 0.00 | 0.02 | 0.00 | 82 | 1013.0 |
| 20260902003100 | 79 | 130 | 2.0 | 8.0 | 0.00 | 0.02 | 0.00 | 81 | 1013.0 |
| 20260902003004 | 79 | 65 | 2.0 | 8.0 | 0.00 | 0.02 | 0.00 | 81 | 1012.9 |
| 20260902002901 | 79 | 97 | 0.0 | 8.0 | 0.00 | 0.02 | 0.00 | 81 | 1012.9 |
| 20260902002759 | 79 | 88 | 4.0 | 8.0 | 0.00 | 0.02 | 0.00 | 82 | 1012.8 |
| 20260902002600 | 79 | 88 | 1.0 | 8.0 | 0.00 | 0.02 | 0.00 | 81 | 1012.7 |
| 20260902002300 | 79 | 17 | 2.0 | 8.0 | 0.00 | 0.02 | 0.00 | 81 | 1012.6 |
| 20260902002201 | 79 | 148 | 1.0 | 8.0 | 0.00 | 0.02 | 0.00 | 80 | 1012.6 |
| 20260902002101 | 80 | 95 | 1.0 | 8.0 | 0.00 | 0.02 | 0.00 | 80 | 1012.6 |
| 20260902001900 | 80 | 79 | 2.0 | 13.0 | 0.00 | 0.02 | 0.00 | 80 | 1012.6 |
| 20260902001800 | 80 | 88 | 2.0 | 13.0 | 0.00 | 0.02 | 0.00 | 80 | 1012.5 |
| 20260902001701 | 80 | 71 | 1.0 | 13.0 | 0.00 | 0.02 | 0.00 | 80 | 1012.5 |
| 20260902001502 | 80 | 69 | 0.0 | 13.0 | 0.00 | 0.02 | 0.00 | 80 | 1012.4 |
| 20260902001400 | 80 | 69 | 4.0 | 13.0 | 0.00 | 0.02 | 0.00 | 80 | 1012.4 |
| 20260902001301 | 80 | 88 | 1.0 | 13.0 | 0.00 | 0.02 | 0.00 | 79 | 1012.4 |
| 20260902001201 | 80 | 184 | 2.0 | 13.0 | 0.00 | 0.02 | 0.00 | 79 | 1012.4 |
| 20260902001101 | 80 | 73 | 7.0 | 13.0 | 0.00 | 0.02 | 0.00 | 79 | 1012.3 |
| 20260902001004 | 81 | 5 | 5.0 | 13.0 | 0.00 | 0.02 | 0.00 | 79 | 1012.3 |
| 20260902000800 | 81 | 338 | 3.0 | 13.0 | 0.00 | 0.02 | 0.00 | 80 | 1012.4 |
| 20260902000700 | 81 | 84 | 2.0 | 13.0 | 0.00 | 0.02 | 0.00 | 80 | 1012.4 |
| 20260902000600 | 81 | 80 | 3.0 | 13.0 | 0.00 | 0.02 | 0.00 | 79 | 1012.4 |
| 20260902000402 | 81 | 43 | 2.0 | 13.0 | 0.00 | 0.02 | 0.00 | 79 | 1012.4 |
| 20260902000301 | 81 | 94 | 2.0 | 13.0 | 0.00 | 0.02 | 0.00 | 80 | 1012.3 |
| 20260902000204 | 81 | 59 | 4.0 | 13.0 | 0.00 | 0.02 | 0.00 | 80 | 1012.4 |
| 20260902000101 | 82 | 63 | 3.0 | 12.0 | 0.00 | 0.02 | 0.00 | 82 | 1012.3 |
| 20260902000004 | 82 | 213 | 2.0 | 12.0 | 0.00 | 0.02 | 0.00 | 84 | 1012.4 |
| 20260901235901 | 82 | 24 | 4.0 | 12.0 | 0.00 | 0.02 | 0.00 | 89 | 1012.4 |
| 20260901235800 | 82 | 295 | 2.0 | 5.0 | 0.00 | 0.02 | 0.00 | 90 | 1012.4 |
| 20260901235701 | 82 | 62 | 2.0 | 5.0 | 0.00 | 0.02 | 0.00 | 90 | 1012.3 |
| 20260901235600 | 82 | 69 | 4.0 | 4.0 | 0.00 | 0.02 | 0.00 | 90 | 1012.3 |
| 20260901235504 | 82 | 110 | 3.0 | 3.0 | 0.00 | 0.02 | 0.00 | 89 | 1012.2 |
| 20260901235401 | 82 | 203 | 0.0 | 0.0 | 0.00 | 0.02 | 0.00 | 89 | 1012.1 |
| 20260901235300 | 82 | 209 | 0.0 | 0.0 | 0.00 | 0.02 | 0.00 | 89 | 1012.1 |
| 20260901235200 | 83 | 209 | 0.0 | 0.0 | 0.00 | 0.02 | 0.00 | 89 | 1012.1 |
| 20260901235101 | 83 | 209 | 0.0 | 0.0 | 0.00 | 0.02 | 0.00 | 89 | 1012.0 |
| 20260901235004 | 83 | 209 | 0.0 | 0.0 | 0.00 | 0.02 | 0.00 | 88 | 1012.0 |
| 20260901234901 | 83 | 209 | 0.0 | 0.0 | 0.00 | 0.02 | 0.00 | 88 | 1011.9 |
| 20260901234803 | 83 | 209 | 0.0 | 0.0 | 0.00 | 0.02 | 0.00 | 88 | 1011.9 |
| 20260901234600 | 83 | 209 | 0.0 | 0.0 | 0.00 | 0.02 | 0.00 | 88 | 1011.9 |
| 20260901234504 | 83 | 209 | 0.0 | 0.0 | 0.00 | 0.02 | 0.00 | 88 | 1011.7 |
| 20260901234300 | 83 | 209 | 0.0 | 0.0 | 0.00 | 0.02 | 0.00 | 87 | 1011.6 |
| 20260901234200 | 83 | 209 | 0.0 | 0.0 | 0.00 | 0.02 | 0.00 | 87 | 1011.6 |
| 20260901234102 | 83 | 209 | 0.0 | 0.0 | 0.00 | 0.02 | 0.00 | 87 | 1011.6 |
| 20260901234004 | 83 | 209 | 0.0 | 0.0 | 0.00 | 0.02 | 0.00 | 87 | 1011.6 |
| 20260901233900 | 83 | 209 | 0.0 | 0.0 | 0.00 | 0.02 | 0.00 | 87 | 1011.5 |
| 20260901233800 | 83 | 209 | 0.0 | 0.0 | 0.00 | 0.02 | 0.00 | 87 | 1011.5 |
| 20260901233702 | 84 | 209 | 0.0 | 0.0 | 0.00 | 0.02 | 0.00 | 86 | 1011.5 |
| 20260901233600 | 84 | 209 | 0.0 | 0.0 | 0.00 | 0.02 | 0.00 | 86 | 1011.6 |
| 20260901233503 | 84 | 209 | 0.0 | 0.0 | 0.00 | 0.02 | 0.00 | 86 | 1011.6 |
| 20260901233400 | 84 | 209 | 0.0 | 0.0 | 0.00 | 0.02 | 0.00 | 86 | 1011.6 |
| 20260901233200 | 84 | 209 | 0.0 | 0.0 | 0.00 | 0.02 | 0.00 | 86 | 1011.6 |
| 20260901233104 | 84 | 209 | 0.0 | 0.0 | 0.00 | 0.02 | 0.00 | 86 | 1011.6 |
| 20260901233004 | 84 | 209 | 0.0 | 0.0 | 0.00 | 0.02 | 0.00 | 86 | 1011.6 |
| 20260901232800 | 84 | 209 | 0.0 | 0.0 | 0.00 | 0.02 | 0.00 | 85 | 1011.6 |
| 20260901232659 | 84 | 209 | 0.0 | 0.0 | 0.00 | 0.02 | 0.00 | 85 | 1011.6 |
| 20260901232600 | 84 | 209 | 0.0 | 0.0 | 0.00 | 0.02 | 0.00 | 85 | 1011.7 |
| 20260901232504 | 84 | 209 | 0.0 | 0.0 | 0.00 | 0.02 | 0.00 | 85 | 1011.6 |
| 20260901232301 | 84 | 209 | 0.0 | 0.0 | 0.00 | 0.02 | 0.00 | 84 | 1011.6 |
| 20260901232200 | 84 | 209 | 0.0 | 0.0 | 0.00 | 0.02 | 0.00 | 84 | 1011.6 |
| 20260901232101 | 85 | 209 | 0.0 | 0.0 | 0.00 | 0.02 | 0.00 | 84 | 1011.6 |
| 20260901232004 | 85 | 209 | 0.0 | 0.0 | 0.00 | 0.02 | 0.00 | 84 | 1011.5 |
| 20260901231900 | 85 | 209 | 0.0 | 0.0 | 0.00 | 0.02 | 0.00 | 84 | 1011.5 |
| 20260901231800 | 85 | 209 | 0.0 | 0.0 | 0.00 | 0.02 | 0.00 | 84 | 1011.5 |
| 20260901231600 | 85 | 209 | 0.0 | 0.0 | 0.00 | 0.02 | 0.00 | 83 | 1011.5 |
| 20260901231503 | 85 | 209 | 0.0 | 0.0 | 0.00 | 0.02 | 0.00 | 83 | 1011.5 |
| 20260901231301 | 85 | 209 | 0.0 | 0.0 | 0.00 | 0.02 | 0.00 | 83 | 1011.6 |
| 20260901231200 | 85 | 209 | 0.0 | 0.0 | 0.00 | 0.02 | 0.00 | 83 | 1011.5 |
| 20260901231003 | 85 | 209 | 0.0 | 0.0 | 0.00 | 0.02 | 0.00 | 83 | 1011.5 |
| 20260901230901 | 85 | 209 | 0.0 | 0.0 | 0.00 | 0.02 | 0.00 | 83 | 1011.5 |
| 20260901230800 | 85 | 209 | 0.0 | 0.0 | 0.00 | 0.02 | 0.00 | 83 | 1011.6 |
| 20260901230700 | 85 | 209 | 0.0 | 0.0 | 0.00 | 0.02 | 0.00 | 82 | 1011.6 |
| 20260901230600 | 85 | 209 | 0.0 | 0.0 | 0.00 | 0.02 | 0.00 | 82 | 1011.6 |
| 20260901230504 | 86 | 209 | 0.0 | 0.0 | 0.00 | 0.02 | 0.00 | 82 | 1011.6 |
| 20260901230400 | 86 | 209 | 0.0 | 0.0 | 0.00 | 0.02 | 0.00 | 83 | 1011.6 |
| 20260901230301 | 86 | 209 | 0.0 | 0.0 | 0.00 | 0.02 | 0.00 | 82 | 1011.6 |
| 20260901230201 | 86 | 209 | 0.0 | 0.0 | 0.00 | 0.02 | 0.00 | 82 | 1011.6 |
| 20260901230100 | 86 | 209 | 0.0 | 0.0 | 0.00 | 0.02 | 0.00 | 82 | 1011.7 |
| 20260901230004 | 86 | 209 | 0.0 | 0.0 | 0.00 | 0.02 | 0.00 | 82 | 1011.7 |
| 20260901225901 | 86 | 209 | 0.0 | 0.0 | 0.00 | 0.02 | 0.00 | 82 | 1011.7 |
| 20260901225703 | 86 | 209 | 0.0 | 0.0 | 0.00 | 0.02 | 0.00 | 82 | 1011.6 |
| 20260901225600 | 86 | 209 | 0.0 | 0.0 | 0.00 | 0.02 | 0.00 | 81 | 1011.6 |
| 20260901225507 | 86 | 209 | 0.0 | 0.0 | 0.00 | 0.02 | 0.00 | 81 | 1011.6 |
| 20260901225300 | 86 | 209 | 0.0 | 0.0 | 0.00 | 0.02 | 0.00 | 81 | 1011.6 |
| 20260901225200 | 86 | 209 | 0.0 | 0.0 | 0.00 | 0.02 | 0.00 | 81 | 1011.6 |
| 20260901225101 | 86 | 209 | 0.0 | 2.0 | 0.00 | 0.02 | 0.00 | 81 | 1011.6 |
| 20260901225003 | 86 | 209 | 0.0 | 2.0 | 0.00 | 0.02 | 0.00 | 81 | 1011.6 |
| 20260901224901 | 86 | 209 | 0.0 | 2.0 | 0.00 | 0.02 | 0.00 | 81 | 1011.5 |
| 20260901224800 | 86 | 209 | 0.0 | 2.0 | 0.00 | 0.02 | 0.00 | 81 | 1011.5 |
| 20260901224659 | 86 | 209 | 0.0 | 2.0 | 0.00 | 0.02 | 0.00 | 81 | 1011.4 |
| 20260901224600 | 86 | 209 | 0.0 | 2.0 | 0.00 | 0.02 | 0.00 | 82 | 1011.4 |
| 20260901224504 | 86 | 209 | 0.0 | 2.0 | 0.00 | 0.02 | 0.00 | 82 | 1011.4 |
| 20260901224401 | 86 | 209 | 0.0 | 2.0 | 0.00 | 0.02 | 0.00 | 82 | 1011.3 |
| 20260901224301 | 86 | 209 | 0.0 | 2.0 | 0.00 | 0.02 | 0.00 | 82 | 1011.4 |
| 20260901224201 | 86 | 209 | 1.0 | 2.0 | 0.00 | 0.02 | 0.00 | 82 | 1011.4 |
| 20260901224100 | 86 | 209 | 1.0 | 2.0 | 0.00 | 0.02 | 0.00 | 82 | 1011.4 |
| 20260901224004 | 86 | 209 | 0.0 | 2.0 | 0.00 | 0.02 | 0.00 | 81 | 1011.4 |
| 20260901223900 | 86 | 209 | 0.0 | 2.0 | 0.00 | 0.02 | 0.00 | 82 | 1011.4 |
| 20260901223801 | 86 | 209 | 1.0 | 2.0 | 0.00 | 0.02 | 0.00 | 82 | 1011.3 |
| 20260901223700 | 86 | 209 | 0.0 | 2.0 | 0.00 | 0.02 | 0.00 | 81 | 1011.4 |
| 20260901223504 | 86 | 209 | 0.0 | 2.0 | 0.00 | 0.02 | 0.00 | 82 | 1011.4 |
| 20260901223359 | 86 | 209 | 0.0 | 2.0 | 0.00 | 0.02 | 0.00 | 81 | 1011.4 |
| 20260901223300 | 86 | 209 | 0.0 | 4.0 | 0.00 | 0.02 | 0.00 | 82 | 1011.4 |
| 20260901223201 | 86 | 209 | 0.0 | 4.0 | 0.00 | 0.02 | 0.00 | 81 | 1011.5 |
| 20260901223005 | 87 | 209 | 0.0 | 4.0 | 0.00 | 0.02 | 0.00 | 81 | 1011.4 |
| 20260901222901 | 87 | 209 | 0.0 | 4.0 | 0.00 | 0.02 | 0.00 | 81 | 1011.4 |
| 20260901222801 | 87 | 209 | 0.0 | 4.0 | 0.00 | 0.02 | 0.00 | 82 | 1011.4 |
| 20260901222701 | 87 | 209 | 0.0 | 4.0 | 0.00 | 0.02 | 0.00 | 83 | 1011.4 |
| 20260901222601 | 87 | 209 | 0.0 | 4.0 | 0.00 | 0.02 | 0.00 | 83 | 1011.4 |
| 20260901222502 | 87 | 209 | 0.0 | 4.0 | 0.00 | 0.02 | 0.00 | 83 | 1011.4 |
| 20260901222400 | 87 | 209 | 3.0 | 4.0 | 0.00 | 0.02 | 0.00 | 80 | 1011.4 |
| 20260901222200 | 87 | 245 | 0.0 | 1.0 | 0.00 | 0.02 | 0.00 | 80 | 1011.4 |
| 20260901222101 | 88 | 245 | 0.0 | 1.0 | 0.00 | 0.02 | 0.00 | 80 | 1011.4 |
| 20260901222004 | 88 | 245 | 0.0 | 0.0 | 0.00 | 0.02 | 0.00 | 79 | 1011.4 |
| 20260901221900 | 88 | 246 | 0.0 | 0.0 | 0.00 | 0.02 | 0.00 | 78 | 1011.4 |
| 20260901221801 | 88 | 245 | 0.0 | 1.0 | 0.00 | 0.02 | 0.00 | 78 | 1011.3 |
| 20260901221700 | 88 | 245 | 0.0 | 1.0 | 0.00 | 0.02 | 0.00 | 78 | 1011.3 |
| 20260901221600 | 88 | 246 | 0.0 | 1.0 | 0.00 | 0.02 | 0.00 | 78 | 1011.3 |
| 20260901221400 | 88 | 246 | 0.0 | 1.0 | 0.00 | 0.02 | 0.00 | 79 | 1011.3 |
| 20260901221300 | 88 | 246 | 0.0 | 1.0 | 0.00 | 0.02 | 0.00 | 79 | 1011.3 |
| 20260901221200 | 88 | 245 | 0.0 | 1.0 | 0.00 | 0.02 | 0.00 | 78 | 1011.3 |
| 20260901221100 | 88 | 245 | 0.0 | 1.0 | 0.00 | 0.02 | 0.00 | 78 | 1011.3 |
| 20260901221004 | 88 | 245 | 0.0 | 1.0 | 0.00 | 0.02 | 0.00 | 78 | 1011.3 |
| 20260901220901 | 88 | 245 | 0.0 | 1.0 | 0.00 | 0.02 | 0.00 | 78 | 1011.3 |
| 20260901220801 | 88 | 246 | 0.0 | 0.0 | 0.00 | 0.02 | 0.00 | 78 | 1011.3 |
| 20260901220701 | 88 | 246 | 0.0 | 0.0 | 0.00 | 0.02 | 0.00 | 77 | 1011.4 |
| 20260901220600 | 88 | 246 | 0.0 | 0.0 | 0.00 | 0.02 | 0.00 | 78 | 1011.4 |
| 20260901220503 | 88 | 245 | 0.0 | 1.0 | 0.00 | 0.02 | 0.00 | 78 | 1011.5 |
| 20260901220401 | 88 | 245 | 0.0 | 1.0 | 0.00 | 0.02 | 0.00 | 78 | 1011.4 |
| 20260901220301 | 88 | 245 | 0.0 | 2.0 | 0.00 | 0.02 | 0.00 | 78 | 1011.4 |
| 20260901220201 | 88 | 246 | 0.0 | 2.0 | 0.00 | 0.02 | 0.00 | 78 | 1011.3 |
| 20260901220100 | 88 | 246 | 0.0 | 2.0 | 0.00 | 0.02 | 0.00 | 78 | 1011.3 |
| 20260901220004 | 88 | 246 | 0.0 | 2.0 | 0.00 | 0.02 | 0.00 | 78 | 1011.3 |
| 20260901215759 | 88 | 245 | 0.0 | 2.0 | 0.00 | 0.02 | 0.00 | 78 | 1011.2 |
| 20260901215559 | 88 | 245 | 1.0 | 3.0 | 0.00 | 0.02 | 0.00 | 79 | 1011.2 |
| 20260901215300 | 88 | 249 | 0.0 | 3.0 | 0.00 | 0.02 | 0.00 | 78 | 1011.1 |
| 20260901215159 | 88 | 249 | 0.0 | 3.0 | 0.00 | 0.02 | 0.00 | 78 | 1011.1 |
| 20260901215100 | 88 | 249 | 0.0 | 3.0 | 0.00 | 0.02 | 0.00 | 78 | 1011.1 |
| 20260901214859 | 88 | 249 | 0.0 | 3.0 | 0.00 | 0.02 | 0.00 | 79 | 1011.0 |
| 20260901214759 | 88 | 249 | 1.0 | 3.0 | 0.00 | 0.02 | 0.00 | 77 | 1011.0 |
| 20260901214659 | 88 | 249 | 1.0 | 2.0 | 0.00 | 0.02 | 0.00 | 80 | 1011.0 |
| 20260901214559 | 88 | 249 | 1.0 | 2.0 | 0.00 | 0.02 | 0.00 | 77 | 1011.0 |
| 20260901214358 | 88 | 249 | 0.0 | 2.0 | 0.00 | 0.02 | 0.00 | 79 | 1011.1 |
| 20260901214259 | 88 | 249 | 0.0 | 2.0 | 0.00 | 0.02 | 0.00 | 79 | 1011.1 |
| 20260901214100 | 88 | 249 | 0.0 | 2.0 | 0.00 | 0.02 | 0.00 | 79 | 1011.1 |
| 20260901214002 | 88 | 249 | 0.0 | 2.0 | 0.00 | 0.02 | 0.00 | 79 | 1011.1 |
| 20260901213900 | 88 | 249 | 1.0 | 2.0 | 0.00 | 0.02 | 0.00 | 77 | 1011.1 |
| 20260901213759 | 88 | 249 | 0.0 | 2.0 | 0.00 | 0.02 | 0.00 | 78 | 1011.1 |
| 20260901213600 | 89 | 249 | 1.0 | 2.0 | 0.00 | 0.02 | 0.00 | 79 | 1011.1 |
| 20260901213401 | 89 | 249 | 0.0 | 1.0 | 0.00 | 0.02 | 0.00 | 79 | 1011.2 |
| 20260901213259 | 89 | 249 | 0.0 | 2.0 | 0.00 | 0.02 | 0.00 | 79 | 1011.2 |
| 20260901213159 | 89 | 249 | 0.0 | 2.0 | 0.00 | 0.02 | 0.00 | 79 | 1011.2 |
| 20260901213100 | 89 | 249 | 1.0 | 2.0 | 0.00 | 0.02 | 0.00 | 80 | 1011.2 |
| 20260901213003 | 89 | 249 | 0.0 | 2.0 | 0.00 | 0.02 | 0.00 | 78 | 1011.3 |
| 20260901212900 | 89 | 249 | 0.0 | 2.0 | 0.00 | 0.02 | 0.00 | 77 | 1011.3 |
| 20260901212800 | 89 | 249 | 0.0 | 2.0 | 0.00 | 0.02 | 0.00 | 77 | 1011.3 |
| 20260901212659 | 89 | 249 | 0.0 | 2.0 | 0.00 | 0.02 | 0.00 | 77 | 1011.4 |
| 20260901212559 | 89 | 249 | 1.0 | 2.0 | 0.00 | 0.02 | 0.00 | 78 | 1011.3 |
| 20260901212504 | 89 | 249 | 0.0 | 2.0 | 0.00 | 0.02 | 0.00 | 77 | 1011.4 |
| 20260901212400 | 89 | 249 | 1.0 | 2.0 | 0.00 | 0.02 | 0.00 | 77 | 1011.4 |
| 20260901212259 | 89 | 249 | 0.0 | 2.0 | 0.00 | 0.02 | 0.00 | 77 | 1011.4 |
| 20260901212159 | 89 | 249 | 0.0 | 2.0 | 0.00 | 0.02 | 0.00 | 77 | 1011.4 |
| 20260901212100 | 89 | 249 | 0.0 | 2.0 | 0.00 | 0.02 | 0.00 | 77 | 1011.4 |
| 20260901212000 | 89 | 249 | 0.0 | 2.0 | 0.00 | 0.02 | 0.00 | 77 | 1011.4 |
| 20260901211859 | 89 | 249 | 0.0 | 2.0 | 0.00 | 0.02 | 0.00 | 76 | 1011.4 |
| 20260901211759 | 89 | 249 | 0.0 | 2.0 | 0.00 | 0.02 | 0.00 | 76 | 1011.4 |
| 20260901211600 | 89 | 249 | 0.0 | 2.0 | 0.00 | 0.02 | 0.00 | 76 | 1011.4 |
| 20260901211503 | 89 | 249 | 1.0 | 2.0 | 0.00 | 0.02 | 0.00 | 75 | 1011.4 |
| 20260901211359 | 89 | 250 | 1.0 | 2.0 | 0.00 | 0.02 | 0.00 | 76 | 1011.3 |
| 20260901211200 | 89 | 248 | 1.0 | 2.0 | 0.00 | 0.02 | 0.00 | 79 | 1011.3 |
| 20260901211059 | 89 | 248 | 0.0 | 2.0 | 0.00 | 0.02 | 0.00 | 77 | 1011.3 |
| 20260901211000 | 89 | 248 | 1.0 | 2.0 | 0.00 | 0.02 | 0.00 | 77 | 1011.3 |
| 20260901210900 | 89 | 248 | 0.0 | 2.0 | 0.00 | 0.02 | 0.00 | 78 | 1011.3 |
| 20260901210800 | 89 | 248 | 0.0 | 2.0 | 0.00 | 0.02 | 0.00 | 78 | 1011.3 |
| 20260901210700 | 89 | 248 | 0.0 | 2.0 | 0.00 | 0.02 | 0.00 | 77 | 1011.3 |
| 20260901210559 | 89 | 248 | 1.0 | 2.0 | 0.00 | 0.02 | 0.00 | 76 | 1011.3 |
| 20260901210503 | 89 | 248 | 0.0 | 2.0 | 0.00 | 0.02 | 0.00 | 76 | 1011.3 |
| 20260901210403 | 89 | 248 | 0.0 | 2.0 | 0.00 | 0.02 | 0.00 | 75 | 1011.4 |
| 20260901210159 | 90 | 248 | 0.0 | 2.0 | 0.00 | 0.02 | 0.00 | 77 | 1011.4 |
| 20260901210059 | 90 | 248 | 0.0 | 2.0 | 0.00 | 0.02 | 0.00 | 79 | 1011.4 |
| 20260901210005 | 90 | 248 | 0.0 | 2.0 | 0.00 | 0.02 | 0.00 | 78 | 1011.4 |
| 20260901205859 | 90 | 248 | 0.0 | 2.0 | 0.00 | 0.02 | 0.00 | 78 | 1011.4 |
| 20260901205800 | 90 | 248 | 1.0 | 3.0 | 0.00 | 0.02 | 0.00 | 76 | 1011.4 |
| 20260901205700 | 90 | 248 | 2.0 | 4.0 | 0.00 | 0.02 | 0.00 | 76 | 1011.4 |
| 20260901205600 | 90 | 253 | 1.0 | 4.0 | 0.00 | 0.02 | 0.00 | 74 | 1011.5 |
| 20260901205502 | 90 | 253 | 1.0 | 4.0 | 0.00 | 0.02 | 0.00 | 74 | 1011.5 |
| 20260901205359 | 90 | 253 | 0.0 | 4.0 | 0.00 | 0.02 | 0.00 | 76 | 1011.5 |
| 20260901205100 | 90 | 253 | 0.0 | 4.0 | 0.00 | 0.02 | 0.00 | 74 | 1011.5 |
| 20260901204859 | 90 | 253 | 1.0 | 4.0 | 0.00 | 0.02 | 0.00 | 74 | 1011.5 |
| 20260901204759 | 90 | 253 | 1.0 | 4.0 | 0.00 | 0.02 | 0.00 | 74 | 1011.5 |
| 20260901204559 | 90 | 248 | 0.0 | 4.0 | 0.00 | 0.02 | 0.00 | 75 | 1011.6 |
| 20260901204504 | 90 | 248 | 0.0 | 4.0 | 0.00 | 0.02 | 0.00 | 77 | 1011.5 |
| 20260901204400 | 90 | 248 | 0.0 | 4.0 | 0.00 | 0.02 | 0.00 | 79 | 1011.6 |
| 20260901204300 | 90 | 248 | 0.0 | 4.0 | 0.00 | 0.02 | 0.00 | 77 | 1011.6 |
| 20260901204200 | 91 | 248 | 1.0 | 4.0 | 0.00 | 0.02 | 0.00 | 73 | 1011.6 |
| 20260901204101 | 90 | 248 | 2.0 | 4.0 | 0.00 | 0.02 | 0.00 | 72 | 1011.6 |
| 20260901204001 | 90 | 261 | 1.0 | 3.0 | 0.00 | 0.02 | 0.00 | 74 | 1011.6 |
| 20260901203859 | 90 | 261 | 0.0 | 3.0 | 0.00 | 0.02 | 0.00 | 73 | 1011.6 |
| 20260901203700 | 90 | 261 | 3.0 | 3.0 | 0.00 | 0.02 | 0.00 | 73 | 1011.6 |
| 20260901203559 | 90 | 263 | 1.0 | 2.0 | 0.00 | 0.02 | 0.00 | 74 | 1011.6 |
| 20260901203504 | 90 | 263 | 0.0 | 3.0 | 0.00 | 0.02 | 0.00 | 76 | 1011.6 |
| 20260901203400 | 90 | 263 | 0.0 | 4.0 | 0.00 | 0.02 | 0.00 | 76 | 1011.6 |
| 20260901203300 | 90 | 263 | 0.0 | 4.0 | 0.00 | 0.02 | 0.00 | 76 | 1011.7 |
| 20260901203200 | 91 | 263 | 1.0 | 4.0 | 0.00 | 0.02 | 0.00 | 79 | 1011.6 |
| 20260901203004 | 91 | 268 | 0.0 | 4.0 | 0.00 | 0.02 | 0.00 | 79 | 1011.6 |
| 20260901202900 | 91 | 268 | 0.0 | 4.0 | 0.00 | 0.02 | 0.00 | 78 | 1011.6 |
| 20260901202759 | 91 | 268 | 2.0 | 4.0 | 0.00 | 0.02 | 0.00 | 74 | 1011.6 |
| 20260901202700 | 91 | 268 | 0.0 | 4.0 | 0.00 | 0.02 | 0.00 | 73 | 1011.6 |
| 20260901202602 | 91 | 268 | 1.0 | 4.0 | 0.00 | 0.02 | 0.00 | 73 | 1011.6 |
| 20260901202503 | 91 | 268 | 1.0 | 4.0 | 0.00 | 0.02 | 0.00 | 74 | 1011.7 |
| 20260901202400 | 90 | 260 | 2.0 | 3.0 | 0.00 | 0.02 | 0.00 | 75 | 1011.7 |
| 20260901202302 | 90 | 260 | 0.0 | 3.0 | 0.00 | 0.02 | 0.00 | 76 | 1011.7 |
| 20260901202100 | 90 | 260 | 0.0 | 3.0 | 0.00 | 0.02 | 0.00 | 75 | 1011.8 |
| 20260901202003 | 90 | 260 | 0.0 | 3.0 | 0.00 | 0.02 | 0.00 | 74 | 1011.7 |
| 20260901201900 | 90 | 260 | 1.0 | 3.0 | 0.00 | 0.02 | 0.00 | 75 | 1011.7 |
| 20260901201759 | 90 | 259 | 0.0 | 0.0 | 0.00 | 0.02 | 0.00 | 78 | 1011.7 |
| 20260901201700 | 90 | 259 | 0.0 | 0.0 | 0.00 | 0.02 | 0.00 | 78 | 1011.7 |
| 20260901201600 | 90 | 259 | 0.0 | 0.0 | 0.00 | 0.02 | 0.00 | 78 | 1011.8 |
| 20260901201500 | 90 | 259 | 0.0 | 0.0 | 0.00 | 0.02 | 0.00 | 79 | 1011.8 |
| 20260901201359 | 90 | 259 | 0.0 | 0.0 | 0.00 | 0.02 | 0.00 | 78 | 1011.8 |
| 20260901201300 | 90 | 259 | 0.0 | 0.0 | 0.00 | 0.02 | 0.00 | 78 | 1011.7 |
| 20260901201200 | 90 | 259 | 0.0 | 0.0 | 0.00 | 0.02 | 0.00 | 81 | 1011.7 |
| 20260901201004 | 90 | 259 | 0.0 | 0.0 | 0.00 | 0.02 | 0.00 | 80 | 1011.8 |
| 20260901200900 | 90 | 259 | 0.0 | 0.0 | 0.00 | 0.02 | 0.00 | 80 | 1011.9 |
| 20260901200800 | 90 | 259 | 0.0 | 0.0 | 0.00 | 0.02 | 0.00 | 79 | 1011.9 |
| 20260901200701 | 90 | 259 | 0.0 | 0.0 | 0.00 | 0.02 | 0.00 | 78 | 1011.9 |
| 20260901200502 | 89 | 259 | 0.0 | 0.0 | 0.00 | 0.02 | 0.00 | 78 | 1011.9 |
| 20260901200401 | 89 | 259 | 0.0 | 0.0 | 0.00 | 0.02 | 0.00 | 78 | 1011.9 |
| 20260901200300 | 89 | 259 | 0.0 | 0.0 | 0.00 | 0.02 | 0.00 | 79 | 1011.9 |
| 20260901200159 | 89 | 259 | 0.0 | 0.0 | 0.00 | 0.02 | 0.00 | 78 | 1011.9 |
| 20260901200059 | 89 | 259 | 0.0 | 0.0 | 0.00 | 0.02 | 0.00 | 78 | 1011.9 |
| 20260901200008 | 89 | 259 | 0.0 | 0.0 | 0.00 | 0.02 | 0.00 | 78 | 1011.9 |
| 20260901195900 | 89 | 259 | 0.0 | 0.0 | 0.00 | 0.02 | 0.00 | 80 | 1011.9 |
| 20260901195802 | 89 | 259 | 0.0 | 0.0 | 0.00 | 0.02 | 0.00 | 81 | 1011.9 |
| 20260901195604 | 89 | 259 | 0.0 | 0.0 | 0.00 | 0.02 | 0.00 | 81 | 1012.0 |
| 20260901195504 | 89 | 259 | 0.0 | 0.0 | 0.00 | 0.02 | 0.00 | 81 | 1012.0 |
| 20260901195401 | 89 | 259 | 0.0 | 0.0 | 0.00 | 0.02 | 0.00 | 81 | 1012.0 |
| 20260901195300 | 89 | 259 | 0.0 | 0.0 | 0.00 | 0.02 | 0.00 | 81 | 1012.0 |
| 20260901195201 | 89 | 259 | 0.0 | 0.0 | 0.00 | 0.02 | 0.00 | 81 | 1012.0 |
| 20260901195101 | 89 | 259 | 0.0 | 0.0 | 0.00 | 0.02 | 0.00 | 80 | 1012.0 |
| 20260901195004 | 89 | 259 | 0.0 | 0.0 | 0.00 | 0.02 | 0.00 | 79 | 1012.0 |
| 20260901194900 | 88 | 259 | 0.0 | 0.0 | 0.00 | 0.02 | 0.00 | 78 | 1012.0 |
| 20260901194800 | 88 | 259 | 0.0 | 0.0 | 0.00 | 0.02 | 0.00 | 78 | 1012.1 |
| 20260901194600 | 88 | 259 | 0.0 | 0.0 | 0.00 | 0.02 | 0.00 | 80 | 1012.1 |
| 20260901194505 | 88 | 259 | 0.0 | 0.0 | 0.00 | 0.02 | 0.00 | 83 | 1012.0 |
| 20260901194401 | 88 | 259 | 0.0 | 1.0 | 0.00 | 0.02 | 0.00 | 83 | 1012.1 |
| 20260901194300 | 88 | 259 | 0.0 | 1.0 | 0.00 | 0.02 | 0.00 | 82 | 1012.2 |
| 20260901194201 | 88 | 259 | 0.0 | 1.0 | 0.00 | 0.02 | 0.00 | 82 | 1012.2 |
| 20260901194004 | 88 | 259 | 0.0 | 1.0 | 0.00 | 0.02 | 0.00 | 81 | 1012.2 |
| 20260901193901 | 88 | 259 | 0.0 | 1.0 | 0.00 | 0.02 | 0.00 | 82 | 1012.3 |
| 20260901193701 | 88 | 259 | 0.0 | 2.0 | 0.00 | 0.02 | 0.00 | 81 | 1012.3 |
| 20260901193601 | 88 | 259 | 0.0 | 2.0 | 0.00 | 0.02 | 0.00 | 81 | 1012.3 |
| 20260901193503 | 88 | 259 | 0.0 | 2.0 | 0.00 | 0.02 | 0.00 | 81 | 1012.4 |
| 20260901193400 | 88 | 259 | 0.0 | 2.0 | 0.00 | 0.02 | 0.00 | 80 | 1012.4 |
| 20260901193300 | 88 | 259 | 0.0 | 2.0 | 0.00 | 0.02 | 0.00 | 80 | 1012.4 |
| 20260901193202 | 88 | 259 | 0.0 | 2.0 | 0.00 | 0.02 | 0.00 | 81 | 1012.3 |
| 20260901193004 | 88 | 259 | 0.0 | 2.0 | 0.00 | 0.02 | 0.00 | 79 | 1012.4 |
| 20260901192900 | 88 | 259 | 0.0 | 2.0 | 0.00 | 0.02 | 0.00 | 79 | 1012.4 |
| 20260901192700 | 88 | 259 | 1.0 | 2.0 | 0.00 | 0.02 | 0.00 | 79 | 1012.4 |
| 20260901192603 | 88 | 259 | 1.0 | 2.0 | 0.00 | 0.02 | 0.00 | 82 | 1012.4 |
| 20260901192504 | 88 | 259 | 1.0 | 2.0 | 0.00 | 0.02 | 0.00 | 81 | 1012.4 |
| 20260901192300 | 88 | 259 | 0.0 | 2.0 | 0.00 | 0.02 | 0.00 | 82 | 1012.5 |
| 20260901192200 | 88 | 259 | 0.0 | 2.0 | 0.00 | 0.02 | 0.00 | 81 | 1012.5 |
| 20260901192102 | 88 | 259 | 0.0 | 2.0 | 0.00 | 0.02 | 0.00 | 80 | 1012.5 |
| 20260901192004 | 88 | 259 | 0.0 | 2.0 | 0.00 | 0.02 | 0.00 | 78 | 1012.5 |
| 20260901191901 | 88 | 259 | 0.0 | 2.0 | 0.00 | 0.02 | 0.00 | 79 | 1012.5 |
| 20260901191800 | 88 | 259 | 1.0 | 2.0 | 0.00 | 0.02 | 0.00 | 78 | 1012.5 |
| 20260901191701 | 88 | 259 | 1.0 | 1.0 | 0.00 | 0.02 | 0.00 | 80 | 1012.5 |
| 20260901191601 | 88 | 259 | 0.0 | 0.0 | 0.00 | 0.02 | 0.00 | 79 | 1012.5 |
| 20260901191504 | 88 | 259 | 0.0 | 0.0 | 0.00 | 0.02 | 0.00 | 80 | 1012.5 |
| 20260901191401 | 88 | 259 | 0.0 | 1.0 | 0.00 | 0.02 | 0.00 | 81 | 1012.5 |
| 20260901191302 | 88 | 259 | 0.0 | 2.0 | 0.00 | 0.02 | 0.00 | 82 | 1012.5 |
| 20260901191200 | 88 | 259 | 0.0 | 2.0 | 0.00 | 0.02 | 0.00 | 82 | 1012.5 |
| 20260901191101 | 88 | 259 | 0.0 | 6.0 | 0.00 | 0.02 | 0.00 | 81 | 1012.5 |
| 20260901190901 | 88 | 259 | 0.0 | 6.0 | 0.00 | 0.02 | 0.00 | 81 | 1012.5 |
| 20260901190802 | 88 | 259 | 0.0 | 6.0 | 0.00 | 0.02 | 0.00 | 80 | 1012.6 |
| 20260901190659 | 88 | 259 | 0.0 | 6.0 | 0.00 | 0.02 | 0.00 | 78 | 1012.5 |
| 20260901190600 | 88 | 259 | 0.0 | 6.0 | 0.00 | 0.02 | 0.00 | 79 | 1012.6 |
| 20260901190503 | 88 | 259 | 0.0 | 6.0 | 0.00 | 0.02 | 0.00 | 79 | 1012.6 |
| 20260901190301 | 88 | 259 | 1.0 | 6.0 | 0.00 | 0.02 | 0.00 | 79 | 1012.5 |
| 20260901190200 | 88 | 259 | 1.0 | 6.0 | 0.00 | 0.02 | 0.00 | 77 | 1012.6 |
| 20260901190004 | 89 | 261 | 0.0 | 4.0 | 0.00 | 0.02 | 0.00 | 77 | 1012.6 |
| 20260901185859 | 89 | 261 | 0.0 | 4.0 | 0.00 | 0.02 | 0.00 | 78 | 1012.7 |
| 20260901185758 | 89 | 261 | 0.0 | 4.0 | 0.00 | 0.02 | 0.00 | 77 | 1012.8 |
| 20260901185659 | 89 | 261 | 0.0 | 4.0 | 0.00 | 0.02 | 0.00 | 78 | 1012.8 |
| 20260901185559 | 89 | 261 | 0.0 | 4.0 | 0.00 | 0.02 | 0.00 | 77 | 1012.8 |
| 20260901185503 | 89 | 261 | 2.0 | 4.0 | 0.00 | 0.02 | 0.00 | 76 | 1012.8 |
| 20260901185359 | 89 | 261 | 1.0 | 4.0 | 0.00 | 0.02 | 0.00 | 76 | 1012.8 |
| 20260901185259 | 89 | 253 | 0.0 | 4.0 | 0.00 | 0.02 | 0.00 | 77 | 1012.8 |
| 20260901185158 | 89 | 253 | 2.0 | 4.0 | 0.00 | 0.02 | 0.00 | 79 | 1012.8 |
| 20260901185004 | 89 | 257 | 2.0 | 4.0 | 0.00 | 0.02 | 0.00 | 77 | 1012.9 |
| 20260901184859 | 89 | 260 | 2.0 | 4.0 | 0.00 | 0.02 | 0.00 | 77 | 1012.9 |
| 20260901184600 | 89 | 242 | 1.0 | 4.0 | 0.00 | 0.02 | 0.00 | 78 | 1012.8 |
| 20260901184504 | 89 | 263 | 0.0 | 3.0 | 0.00 | 0.02 | 0.00 | 77 | 1012.9 |
| 20260901184400 | 89 | 263 | 1.0 | 3.0 | 0.00 | 0.02 | 0.00 | 77 | 1012.8 |
| 20260901184059 | 89 | 292 | 2.0 | 3.0 | 0.00 | 0.02 | 0.00 | 79 | 1012.9 |
| 20260901183859 | 89 | 298 | 1.0 | 3.0 | 0.00 | 0.02 | 0.00 | 77 | 1012.9 |
| 20260901183758 | 89 | 298 | 2.0 | 3.0 | 0.00 | 0.02 | 0.00 | 76 | 1013.0 |
| 20260901183700 | 89 | 298 | 2.0 | 3.0 | 0.00 | 0.02 | 0.00 | 77 | 1012.9 |
| 20260901183400 | 89 | 247 | 0.0 | 3.0 | 0.00 | 0.02 | 0.00 | 78 | 1012.9 |
| 20260901183259 | 89 | 194 | 2.0 | 3.0 | 0.00 | 0.02 | 0.00 | 79 | 1012.9 |
| 20260901183159 | 89 | 194 | 0.0 | 2.0 | 0.00 | 0.02 | 0.00 | 80 | 1012.9 |
| 20260901183100 | 89 | 194 | 1.0 | 2.0 | 0.00 | 0.02 | 0.00 | 79 | 1012.9 |
| 20260901183002 | 89 | 194 | 0.0 | 2.0 | 0.00 | 0.02 | 0.00 | 80 | 1012.9 |
| 20260901182900 | 89 | 194 | 0.0 | 2.0 | 0.00 | 0.02 | 0.00 | 79 | 1012.9 |
| 20260901182759 | 89 | 194 | 1.0 | 3.0 | 0.00 | 0.02 | 0.00 | 80 | 1012.9 |
| 20260901182701 | 89 | 194 | 1.0 | 3.0 | 0.00 | 0.02 | 0.00 | 80 | 1012.9 |
| 20260901182601 | 88 | 194 | 1.0 | 3.0 | 0.00 | 0.02 | 0.00 | 80 | 1013.0 |
| 20260901182500 | 88 | 194 | 2.0 | 3.0 | 0.00 | 0.02 | 0.00 | 80 | 1013.0 |
| 20260901182400 | 88 | 194 | 0.0 | 3.0 | 0.00 | 0.02 | 0.00 | 80 | 1013.0 |
| 20260901182259 | 88 | 194 | 0.0 | 3.0 | 0.00 | 0.02 | 0.00 | 80 | 1013.0 |
| 20260901182159 | 88 | 194 | 0.0 | 3.0 | 0.00 | 0.02 | 0.00 | 81 | 1013.0 |
| 20260901182100 | 88 | 194 | 0.0 | 3.0 | 0.00 | 0.02 | 0.00 | 82 | 1013.0 |
| 20260901182002 | 88 | 194 | 1.0 | 3.0 | 0.00 | 0.02 | 0.00 | 80 | 1013.1 |
| 20260901181859 | 88 | 222 | 2.0 | 3.0 | 0.00 | 0.02 | 0.00 | 82 | 1013.1 |
| 20260901181801 | 88 | 222 | 1.0 | 3.0 | 0.00 | 0.02 | 0.00 | 80 | 1013.1 |
| 20260901181659 | 88 | 222 | 0.0 | 3.0 | 0.00 | 0.02 | 0.00 | 80 | 1013.1 |
| 20260901181400 | 88 | 222 | 1.0 | 8.0 | 0.00 | 0.02 | 0.00 | 78 | 1013.1 |
| 20260901181259 | 88 | 222 | 0.0 | 8.0 | 0.00 | 0.02 | 0.00 | 79 | 1013.1 |
| 20260901181059 | 88 | 221 | 1.0 | 8.0 | 0.00 | 0.02 | 0.00 | 77 | 1013.1 |
| 20260901181003 | 88 | 221 | 1.0 | 8.0 | 0.00 | 0.02 | 0.00 | 78 | 1013.1 |
| 20260901180659 | 89 | 222 | 1.0 | 8.0 | 0.00 | 0.02 | 0.00 | 77 | 1013.1 |
| 20260901180601 | 89 | 261 | 7.0 | 8.0 | 0.00 | 0.02 | 0.00 | 77 | 1013.1 |
| 20260901180500 | 89 | 279 | 2.0 | 5.0 | 0.00 | 0.02 | 0.00 | 76 | 1013.1 |
| 20260901180359 | 89 | 282 | 1.0 | 5.0 | 0.00 | 0.02 | 0.00 | 76 | 1013.2 |
| 20260901180059 | 89 | 273 | 1.0 | 4.0 | 0.00 | 0.02 | 0.00 | 77 | 1013.2 |
| 20260901180005 | 89 | 274 | 2.0 | 3.0 | 0.00 | 0.02 | 0.00 | 77 | 1013.2 |
| 20260901175859 | 89 | 259 | 1.0 | 4.0 | 0.00 | 0.02 | 0.00 | 77 | 1013.1 |
| 20260901175759 | 88 | 259 | 1.0 | 4.0 | 0.00 | 0.02 | 0.00 | 79 | 1013.1 |
| 20260901175659 | 88 | 259 | 1.0 | 4.0 | 0.00 | 0.02 | 0.00 | 79 | 1013.1 |
| 20260901175601 | 88 | 259 | 1.0 | 4.0 | 0.00 | 0.02 | 0.00 | 79 | 1013.2 |
| 20260901175503 | 88 | 159 | 0.0 | 4.0 | 0.00 | 0.02 | 0.00 | 78 | 1013.2 |
| 20260901175359 | 88 | 159 | 2.0 | 4.0 | 0.00 | 0.02 | 0.00 | 80 | 1013.2 |
| 20260901175300 | 88 | 148 | 2.0 | 4.0 | 0.00 | 0.02 | 0.00 | 81 | 1013.1 |
| 20260901175201 | 88 | 150 | 3.0 | 4.0 | 0.00 | 0.02 | 0.00 | 78 | 1013.1 |
| 20260901175059 | 88 | 265 | 0.0 | 4.0 | 0.00 | 0.02 | 0.00 | 78 | 1013.1 |
| 20260901175003 | 88 | 265 | 0.0 | 4.0 | 0.00 | 0.02 | 0.00 | 78 | 1013.1 |
| 20260901174859 | 88 | 275 | 4.0 | 4.0 | 0.00 | 0.02 | 0.00 | 79 | 1013.1 |
| 20260901174800 | 88 | 229 | 0.0 | 3.0 | 0.00 | 0.02 | 0.00 | 80 | 1013.1 |
| 20260901174700 | 88 | 229 | 1.0 | 3.0 | 0.00 | 0.02 | 0.00 | 81 | 1013.0 |
| 20260901174601 | 88 | 229 | 0.0 | 3.0 | 0.00 | 0.02 | 0.00 | 82 | 1013.1 |
| 20260901174503 | 87 | 229 | 0.0 | 6.0 | 0.00 | 0.02 | 0.00 | 81 | 1013.1 |
| 20260901174400 | 87 | 229 | 0.0 | 6.0 | 0.00 | 0.02 | 0.00 | 81 | 1013.1 |
| 20260901174300 | 87 | 229 | 1.0 | 6.0 | 0.00 | 0.02 | 0.00 | 82 | 1013.1 |
| 20260901174200 | 87 | 229 | 1.0 | 6.0 | 0.00 | 0.02 | 0.00 | 81 | 1013.1 |
| 20260901174059 | 87 | 229 | 1.0 | 6.0 | 0.00 | 0.02 | 0.00 | 80 | 1013.1 |
| 20260901174000 | 87 | 229 | 0.0 | 6.0 | 0.00 | 0.02 | 0.00 | 82 | 1013.1 |
| 20260901173900 | 87 | 229 | 0.0 | 6.0 | 0.00 | 0.02 | 0.00 | 82 | 1013.2 |
| 20260901173759 | 87 | 258 | 1.0 | 6.0 | 0.00 | 0.02 | 0.00 | 79 | 1013.2 |
| 20260901173659 | 87 | 261 | 1.0 | 6.0 | 0.00 | 0.02 | 0.00 | 78 | 1013.1 |
| 20260901173600 | 87 | 263 | 2.0 | 6.0 | 0.00 | 0.02 | 0.00 | 78 | 1013.2 |
| 20260901173503 | 87 | 298 | 1.0 | 3.0 | 0.00 | 0.02 | 0.00 | 79 | 1013.2 |
| 20260901173400 | 87 | 298 | 2.0 | 3.0 | 0.00 | 0.02 | 0.00 | 80 | 1013.3 |
| 20260901173300 | 87 | 176 | 0.0 | 3.0 | 0.00 | 0.02 | 0.00 | 79 | 1013.2 |
| 20260901173159 | 87 | 176 | 0.0 | 3.0 | 0.00 | 0.02 | 0.00 | 80 | 1013.3 |
| 20260901173100 | 87 | 176 | 1.0 | 3.0 | 0.00 | 0.02 | 0.00 | 82 | 1013.3 |
| 20260901173004 | 87 | 175 | 2.0 | 3.0 | 0.00 | 0.02 | 0.00 | 82 | 1013.3 |
| 20260901172900 | 87 | 175 | 2.0 | 3.0 | 0.00 | 0.02 | 0.00 | 82 | 1013.3 |
| 20260901172700 | 87 | 172 | 2.0 | 3.0 | 0.00 | 0.02 | 0.00 | 82 | 1013.3 |
| 20260901172600 | 87 | 256 | 0.0 | 3.0 | 0.00 | 0.02 | 0.00 | 81 | 1013.2 |
| 20260901172503 | 87 | 256 | 0.0 | 3.0 | 0.00 | 0.02 | 0.00 | 81 | 1013.3 |
| 20260901172400 | 86 | 256 | 0.0 | 3.0 | 0.00 | 0.02 | 0.00 | 80 | 1013.3 |
| 20260901172304 | 86 | 256 | 1.0 | 3.0 | 0.00 | 0.02 | 0.00 | 80 | 1013.3 |
| 20260901172159 | 86 | 250 | 2.0 | 3.0 | 0.00 | 0.02 | 0.00 | 80 | 1013.3 |
| 20260901172059 | 87 | 250 | 2.0 | 3.0 | 0.00 | 0.02 | 0.00 | 81 | 1013.3 |
| 20260901171859 | 86 | 262 | 2.0 | 3.0 | 0.00 | 0.02 | 0.00 | 80 | 1013.3 |
| 20260901171800 | 86 | 254 | 0.0 | 3.0 | 0.00 | 0.02 | 0.00 | 80 | 1013.3 |
| 20260901171659 | 86 | 254 | 2.0 | 3.0 | 0.00 | 0.02 | 0.00 | 81 | 1013.3 |
| 20260901171600 | 86 | 254 | 2.0 | 3.0 | 0.00 | 0.02 | 0.00 | 81 | 1013.3 |
| 20260901171503 | 86 | 244 | 1.0 | 3.0 | 0.00 | 0.02 | 0.00 | 82 | 1013.3 |
| 20260901171400 | 86 | 243 | 2.0 | 3.0 | 0.00 | 0.02 | 0.00 | 82 | 1013.3 |
| 20260901171259 | 86 | 156 | 1.0 | 3.0 | 0.00 | 0.02 | 0.00 | 83 | 1013.3 |
| 20260901171159 | 86 | 156 | 1.0 | 3.0 | 0.00 | 0.02 | 0.00 | 82 | 1013.3 |
| 20260901171101 | 86 | 149 | 0.0 | 4.0 | 0.00 | 0.02 | 0.00 | 82 | 1013.3 |
| 20260901171004 | 86 | 149 | 0.0 | 4.0 | 0.00 | 0.02 | 0.00 | 82 | 1013.3 |
| 20260901170900 | 86 | 148 | 2.0 | 4.0 | 0.00 | 0.02 | 0.00 | 81 | 1013.3 |
| 20260901170700 | 86 | 277 | 2.0 | 4.0 | 0.00 | 0.02 | 0.00 | 82 | 1013.2 |
| 20260901170600 | 86 | 277 | 2.0 | 4.0 | 0.00 | 0.02 | 0.00 | 82 | 1013.2 |
| 20260901170503 | 86 | 277 | 1.0 | 4.0 | 0.00 | 0.02 | 0.00 | 83 | 1013.1 |
| 20260901170359 | 85 | 277 | 1.0 | 4.0 | 0.00 | 0.02 | 0.00 | 83 | 1013.2 |
| 20260901170300 | 85 | 277 | 0.0 | 4.0 | 0.00 | 0.02 | 0.00 | 82 | 1013.1 |
| 20260901170200 | 85 | 277 | 0.0 | 4.0 | 0.00 | 0.02 | 0.00 | 82 | 1013.1 |
| 20260901170100 | 85 | 277 | 3.0 | 4.0 | 0.00 | 0.02 | 0.00 | 83 | 1013.2 |
| 20260901170004 | 85 | 248 | 3.0 | 4.0 | 0.00 | 0.02 | 0.00 | 85 | 1013.2 |
| 20260901165902 | 85 | 213 | 0.0 | 4.0 | 0.00 | 0.02 | 0.00 | 86 | 1013.2 |
| 20260901165801 | 85 | 213 | 0.0 | 4.0 | 0.00 | 0.02 | 0.00 | 84 | 1013.2 |
| 20260901165600 | 85 | 213 | 2.0 | 6.0 | 0.00 | 0.02 | 0.00 | 85 | 1013.4 |
| 20260901165301 | 85 | 144 | 0.0 | 6.0 | 0.00 | 0.02 | 0.00 | 88 | 1013.5 |
| 20260901165201 | 84 | 144 | 0.0 | 6.0 | 0.00 | 0.02 | 0.00 | 87 | 1013.5 |
| 20260901165101 | 84 | 144 | 0.0 | 6.0 | 0.00 | 0.02 | 0.00 | 87 | 1013.5 |
| 20260901165004 | 84 | 144 | 1.0 | 6.0 | 0.00 | 0.02 | 0.00 | 86 | 1013.5 |
| 20260901164904 | 84 | 144 | 0.0 | 6.0 | 0.00 | 0.02 | 0.00 | 86 | 1013.5 |
| 20260901164700 | 84 | 179 | 3.0 | 3.0 | 0.00 | 0.02 | 0.00 | 87 | 1013.6 |
| 20260901164600 | 84 | 188 | 1.0 | 3.0 | 0.00 | 0.02 | 0.00 | 85 | 1013.7 |
| 20260901164503 | 84 | 188 | 1.0 | 3.0 | 0.00 | 0.02 | 0.00 | 86 | 1013.7 |
| 20260901164400 | 84 | 188 | 1.0 | 3.0 | 0.00 | 0.02 | 0.00 | 87 | 1013.7 |
| 20260901164202 | 83 | 179 | 1.0 | 3.0 | 0.00 | 0.02 | 0.00 | 87 | 1013.7 |
| 20260901164100 | 83 | 269 | 0.0 | 3.0 | 0.00 | 0.02 | 0.00 | 87 | 1013.7 |
| 20260901163701 | 83 | 269 | 2.0 | 3.0 | 0.00 | 0.02 | 0.00 | 87 | 1013.8 |
| 20260901163600 | 83 | 263 | 0.0 | 3.0 | 0.00 | 0.02 | 0.00 | 88 | 1013.8 |
| 20260901163503 | 83 | 263 | 1.0 | 3.0 | 0.00 | 0.02 | 0.00 | 87 | 1013.8 |
| 20260901163400 | 83 | 263 | 0.0 | 3.0 | 0.00 | 0.02 | 0.00 | 87 | 1013.8 |
| 20260901163301 | 83 | 263 | 1.0 | 3.0 | 0.00 | 0.02 | 0.00 | 87 | 1013.8 |
| 20260901163201 | 83 | 265 | 2.0 | 3.0 | 0.00 | 0.02 | 0.00 | 86 | 1013.8 |
| 20260901163102 | 83 | 265 | 2.0 | 3.0 | 0.00 | 0.02 | 0.00 | 86 | 1013.8 |
| 20260901163004 | 83 | 265 | 1.0 | 3.0 | 0.00 | 0.02 | 0.00 | 86 | 1013.8 |
| 20260901162900 | 83 | 265 | 0.0 | 3.0 | 0.00 | 0.02 | 0.00 | 86 | 1013.7 |
| 20260901162801 | 83 | 265 | 0.0 | 3.0 | 0.00 | 0.02 | 0.00 | 86 | 1013.8 |
| 20260901162701 | 83 | 265 | 1.0 | 3.0 | 0.00 | 0.02 | 0.00 | 87 | 1013.8 |
| 20260901162601 | 83 | 268 | 1.0 | 3.0 | 0.00 | 0.02 | 0.00 | 86 | 1013.7 |
| 20260901162504 | 83 | 263 | 2.0 | 3.0 | 0.00 | 0.02 | 0.00 | 87 | 1013.8 |
| 20260901162305 | 83 | 263 | 0.0 | 3.0 | 0.00 | 0.02 | 0.00 | 88 | 1013.9 |
| 20260901162201 | 83 | 265 | 1.0 | 3.0 | 0.00 | 0.02 | 0.00 | 88 | 1013.9 |
| 20260901162003 | 83 | 266 | 0.0 | 3.0 | 0.00 | 0.02 | 0.00 | 88 | 1013.9 |